Teste – Processos

[cjtoolbox name=”Processos AGPC”]

Unidade Processo Instituição/Empresa Objeto Início Término Link
CEETEPS 136.00006129/2023-17 IEGE Instituto Brasileiro de Educação Profissional Ltda. Concessão de Estágios... 1970/01/01 20/09/2023 20/09/2028
CEETEPS 136.00035111/2023-14 ASH Talentos Ltda Concessão de Estágios... 2023/10/11 11/10/2023 11/10/2028
CEETEPS 136.00004939/2023-21 G & G RECURSOS HUMANOS LTDA Concessão de Estágios... 1970/01/01 26/07/2023 26/07/2028
CEETEPS 136.00024129/2023-91 INSTITUTO DE PESQUISAS ECONOMICAS - IPEFAE Concessão de Estágios... 1970/01/01 24/10/2023 24/10/2028
CEETEPS 136.00021245/2023-58 RHF TALENTOS - ADM BPLAN LTDA Concessão de Estágios... 1970/01/01 24/10/2023 24/10/2028
CEETEPS 136.00006108/2023-93 JEANETE G. DUARTE ME Concessão de Estágios... 1970/01/01 24/10/2023 24/10/2028
CEETEPS 136.00002940/2023-11 Associação Assistencial de Integração ao Trabalho - Ser Especial Concessão de Estágios... 1970/01/01 30/10/2023 30/10/2028
CEETEPS 136.00041099/2023-87 PHILIA ASSESSORIA E CONSULTORIA EMPRESARIAL LTDA Concessão de Estágios... 1970/01/01 24/11/2023 24/11/2028
CEETEPS 136.00052545/2023-89 Centro de Integração de Estudantes - Estágios CIN Concessão de Estágios... 1970/01/01 14/12/2023 14/12/2028
CEETEPS 136.00077948/2023-31 F.A. Morelli Apoio à Educação Ltda. Concessão de Estágios... 1970/01/01 14/12/2023 14/12/2028
CEETEPS 136.00052545/2023-89 Centro de Intregração de Estudantes - Estagios CIN Concessão de Estágios... 1970/01/01 14/12/2023 14/12/2028
CEETEPS 136.00083626/2023-21 Qualy Mão de Obra Temporária LTDA. Concessão de Estágios... 1970/01/01 20/12/2023 14/12/2028
CEETEPS 136.00003514/2023-02 Procuradoria Regional do Trabalho da 2ª Região Concessão de Estágios... 1970/01/01 25/09/2023 25/09/2026
CEETEPS 136.00016786/2023-64 Vitah Apoio Administrativo LTDA. Concessão de Estágios... 1970/01/01 22/09/2023 22/09/2028
CEETEPS 136.00006124/2023-86 LUPPINO AGÊNCIA DE INTEGRAÇÃO, RECRUTAMENTO E SELEÇÃO Concessão de Estágios... 1970/01/01 19/09/2023 19/09/2028
CEETEPS 136.00008524/2023-26 GNE – GERENCIAMENTO EMPRESARIAL DE ESTÁGIOS LTDA. Concessão de Estágios... 1970/01/01 22/09/2023 22/09/2028
CEETEPS 136.00007764/2023-11 PAULO HENRIQUE TAKAKURA - Evo Estágios bitinga Concessão de Estágios... 1970/01/01 31/08/2023 31/08/2028
CEETEPS 136.00014235/2023-66 UNIVERSIA BRASIL S.A Concessão de Estágios... 1970/01/01 18/09/2023 18/09/2028
CEETEPS 136.00017997/2023-14 CA&T CONECTA AGENCIAMENTO & TERCEIRIZAÇÃO LTDA. Concessão de Estágios... 1970/01/01 18/09/2023 18/09/2028
CEETEPS 136.00002082/2023-12 Município de Lins Concessão de Estágios... 2023/09/05 05/09/2023 05/09/2028
CEETEPS 136.00006050/2023-88 HYBRID E- CONTROLS TECNOLOGIA AUTOMOTIVA LTDA Concessão de Estágios... 2023/09/01 01/09/2023 01/09/2028
CEETEPS 136.00002898/2023-38 Dinardi Passini Consultoria em Recursos Humanos Ltda. Concessão de Estágios... 2023/09/01 01/09/2023 01/09/2028
CEETEPS 136.00000610/2023-91 SABBA Saneamento e Meio Ambiente Ltda Experiência corporativa integrada às atividades ... 2023/09/01 01/09/2023 01/09/2026
CEETEPS 136.00001649/2023-25 Município de Americana Concessão de Estágios... 1970/01/01 31/08/2023 31/08/2028
CEETEPS 136.00002916/2023-81 Pyxo Estágios Agente de Integração Ltda Concessão de Estágios... 1970/01/01 21/08/2023 21/08/2028
CEETEPS 136.00006099/2023-31 JCP Assessoria em Recursos Humanos Ltda Concessão de Estágios... 1970/01/01 21/08/2023 21/08/2028
CEETEPS 136.00002945/2023-43 Edukar Estágios, Comércio e Promoção em Vendas Ltda Concessão de Estágios... 1970/01/01 22/08/2023 22/08/2028
CEETEPS 136.00006118/2023-29 Aclimed Clínica Médica Aclimação Ltda Concessão de Estágios... 1970/01/01 21/08/2023 21/08/2028
CEETEPS 136.00006127/2023-10 SIMONE MARCOLINO – GENTE RECURSOS HUMANOS. Concessão de Estágios... 1970/01/01 16/08/2023 16/08/2028
CEETEPS 136.00006121/2023-42 CENTRO DE PROMOÇÃO SOCIAL DA PARÓQUIA NOSSA SENHORA DAS DORES DE BARIRI Concessão de Estágios... 1970/01/01 16/08/2023 16/08/2028
CEETEPS 136.00006060/2023-13 ALPHA ESTÁGIO LTDA Concessão de Estágios... 1970/01/01 16/08/2023 16/08/2028
CEETEPS 136.00004677/2023-02 Girardini Silva Gestão de Pessoas Eireli - INV RH Concessão de Estágios... 1970/01/01 19/07/2023 19/07/2028
CEETEPS 136.00003385/2023-44 OPORTUNI SOLUÇÕES EM RECURSOS HUMANOS LTDA Concessão de Estágios... 1970/01/01 19/07/2023 19/07/2028
CEETEPS 136.00003369/2023-51 Município de Araraquara Concessão de Estágios... 2203/06/07 07/06/2203 07/06/2028
CEETEPS 136.00004679/2023-93 ESTÁGIO TOTAL LTDA Concessão de Estágios... 1970/01/01 25/05/2023 25/05/2028
CEETEPS 136.00004670/2023-82 CENTRO DE INTEGRAÇÃO EMPRESA ESCOLA DO RS - CIEE/RS Concessão de Estágios... 1970/01/01 25/05/2023 25/05/2028
CEETEPS 136.00004646/2023-43 BRILHO PRÓPRIO ADMINISTRAÇÃO, TREINAMENTO E DESENVOLVIMENTO LTDA Concessão de Estágios... 1970/01/01 25/05/2023 25/05/2028
CEETEPS CEETEPS-PRC-2023/06402 INOVA ESTÁGIOS RH Ltda Concessão de Estágios... 1970/01/01 15/05/2023 15/05/2028
CEETEPS CEETEPS-PRC-2022/41107 ADIN COMERCIAL E SERVICOS DE MARKETING E INTERNET LTDA Concessão de Estágios... 2023/05/12 12/05/2023 12/05/2028
CEETEPS CEETEPS-PRC-2023/00924 Estagiários.com Web Services Ltda Concessão de Estágios... 2023/05/10 10/05/2023 10/05/2028
CEETEPS CEETEPS-PRC-2022/34454 UPA - Universidade Patativa do Assaré Concessão de Estágios... 1970/01/01 28/04/2023 28/04/2028
CEETEPS CEETEPS-PRC-2023/02035 DAISA CRISTINA SIQUEIRA BASSO CORRETORA DE SEGUROS Concessão de Estágios... 2023/04/11 11/04/2023 11/04/2028
CEETEPS CEETEPS-PRC-2022/39427 CAVALCANTI CONSULTORIA LTDA Concessão de Estágios... 2023/04/11 11/04/2023 11/04/2028
CEETEPS CEETEPS-PRC-2022/39482 SANTO AMARO SERVIÇOS LTDA Concessão de Estágios... 2023/04/05 05/04/2023 05/04/2028
CEETEPS CEETEPS-PRC-2023/03831 R1 SERVIÇOS ADMINISTRATIVOS E TREINAMENTOS DE PESSOAL LTDA Concessão de Estágios... 2023/04/05 05/04/2023 05/04/2028
CEETEPS CEETEPS-PRC-2023/02711 KMI CENTRO DE INTEGRAÇÃO EMPRESA ESCOLA LTDA Concessão de Estágios... 2023/04/05 05/04/2023 05/04/2028
CEETEPS CEETEPS-PRC-2022/36975 ERICA RAMOS DE MOURA TREINAMENTOS E CONSULTORIA ME Concessão de Estágios... 2023/04/05 05/04/2023 05/04/2028
CEETEPS CEETEPS-PRC-2023/03684 CENTRO DE APRENDIZAGEM E MOBILIZAÇÃO PROFISSIONAL E SOCIAL - CAMPS Concessão de Estágios... 2023/04/03 03/04/2023 03/04/2028
CEETEPS 2743412/2019 Super Estágios Ltda EPP (Chamamento Público) Concessão de Estágios... 1970/01/01 19/10/2020 19/10/2025
Centro Estadual de Educação Tecnológica Paula Souza CEETEPS-PRC – 2021/05471 TL Serviços de Apoio para Empresas Ltda Concessão de Estágios... 2022/08/09 09/08/2022 08/08/2027
Centro Estadual de Educação Tecnológica Paula Souza CEETEPS-PRC – 2021/04445 Associação de Ensino Social Profissionalizante - ESPRO Concessão de Estágios... 2022/08/02 02/08/2022 01/08/2027
Centro Estadual de Educação Tecnológica Paula Souza CEETEPS-PRC – 2021/09718 NAPE - Núcleo Assistencial para Estágio Ltda ME Concessão de Estágios... 1970/01/01 28/07/2022 28/07/2027
Centro Estadual de Educação Tecnológica Paula Souza CEETEPS-PRC – 2021/03575 G. L. D'Aólio Jornal e Estágios Concessão de Estágios... 1970/01/01 25/07/2022 25/07/2027
Centro Estadual de Educação Tecnológica Paula Souza CEETEPS-PRC – 2021/03766 Inter Estágios Eireli ME Concessão de Estágios... 2022/07/07 07/07/2022 07/07/2027
CEETEPS 136.00001382/2023-76 Associação de Educação do Homem de Amanhã - AEHDA Concessão de Estágios... 2022/07/06 06/07/2022 06/07/2027
CEETEPS CEETEPS-PRC – 2022/09202 Instituito Universal de Desenvolvimento Social - IUDS Concessão de Estágios... 2022/07/06 06/07/2022 06/07/2027
CEETEPS CEETEPS-PRC – 2021/03572 Conexão Estágio Ltda Concessão de Estágios... 2022/07/01 01/07/2022 01/07/2027
CEETEPS CEETEPS-PRC – 2021/09227 Instituto Nacional Talentos de Inclusão Profissional Concessão de Estágios... 1970/01/01 23/06/2022 23/06/2027
CEETEPS CEETEPS-PRC – 2022/04378 Instituto Euvaldo Lodi Concessão de Estágios... 1970/01/01 23/06/2022 23/06/2027
CEETEPS CEETEPS-PRC-2021/02751 M K M Maffi Ltda. (PENSECOM) Concessão de Estágios... 2022/04/08 08/04/2022 07/04/2027
CEETEPS 1522524/2020 Agieer Consultoria de Talentos Ltda Concessão de Estágios... 1970/01/01 16/03/2022 16/03/2027
CEETEPS CEETEPS-PRC-2021/03566 Metta Integradora Empresa Escola Sociedade Simple Ltda. Concessão de Estágios... 2022/02/04 04/02/2022 03/02/2027
CEETEPS CEETEPS-PRC-2021/02758 Estagiar Serviços de Integração Empresa Escola Concessão de Estágios... 2022/02/04 04/02/2022 03/02/2027
CEETEPS 1155212/2020 Futura Integrador Empresa Escola Ltda. Concessão de Estágios... 2022/02/04 04/02/2022 03/02/2027
CEETEPS 1523240/2020 Companhia de Estágios / PPM Human Resources Concessão de Estágios... 2022/02/02 02/02/2022 01/02/2027
CEETEPS 2634056/2019 CIEE - Centro de Integração Empresa Escola (Dispensa de Chamamento Público) Concessão de Estágios... 2021/10/04 04/10/2021 03/10/2026
CEETEPS CEETEPS-PRC-2020/00058 Global Central de Estágios Ltda (Chamamento Públiconº 010/2020) Concessão de Estágios... 1970/01/01 23/08/2021 22/08/2026
CEETEPS CEETEPS-PRC-2020/00060 Z-ESTÁGIOS.APP TECNOLOGIA DA INFORMAÇÃO LTDA ME Concessão de Estágios... 2021/07/12 12/07/2021 11/07/2026
CEETEPS 3139477/2019 NUBE - Núcleo Brasileiro de Estágios (Chamamento Públiconº 010/2020) Concessão de Estágios... 2021/01/05 05/01/2021 04/01/2026
CEETEPS CEETEPS-PRC-2022/32932 Mega Estágios Ltda Concessão de Estágios... 1970/01/01 22/12/2022 22/12/2027
CEETEPS CEETEPS-PRC-2022/31546 Ativa Gestão de Estágios e Serviços Ltda. Concessão de Estágios... 1970/01/01 22/12/2022 22/12/2027
CEETEPS CEETEPS-PRC-2022/33871 Centro de Integração Empresa Escola do Rio de Janeiro - CIEE/RJ Concessão de Estágios... 1970/01/01 22/12/2022 22/12/2027
CEETEPS CEETEPS-PRC-2022/33484 Sampaio Trabalhos e Serviços Cadastrais Ltda. Concessão de Estágios... 1970/01/01 19/12/2022 19/12/2027
CEETEPS CEETEPS-PRC-2022/37195 Equilibra Soluções Administrativas e Treinamentos Gerenciais Ltda. Concessão de Estágios... 1970/01/01 19/12/2022 19/12/2027
CEETEPS CEETEPS-PRC-2022/37416 E Pro Soluções e Estágios Ltda. Concessão de Estágios... 1970/01/01 19/12/2022 19/12/2027
CEETEPS CEETEPS-PRC-2022/30163 PR Serviços, Recrutamento e Seleção Ltda. Concessão de Estágios... 2022/12/07 07/12/2022 07/12/2027
CEETEPS CEETEPS-PRC-2022/36756 Belottis Consultorua e Treinamentos Ltda. Concessão de Estágios... 2022/12/07 07/12/2022 07/12/2027
CEETEPS CEETEPS-PRC-2022/27992 ABRH-RS - Associação Brasileira de Recursos Humanos do RS. Concessão de Estágios... 2022/12/07 07/12/2022 07/12/2027
CEETEPS CEETEPS-PRC-2022/30328 Empregar Já Estágios e Efetivos Ltda. Concessão de Estágios... 1970/01/01 21/11/2022 21/11/2027
CEETEPS CEETEPS-PRC-2022/30881 AGIPE – Agência de Integração de Pessoas Ltda. Concessão de Estágios... 2022/11/11 11/11/2022 11/11/2027
Centro Estadual de Educação Tecnológica Paula Souza CEETEPS-PRC-2022/28838 Agiliza Serviços Empresariais Ltda. Concessão de Estágios... 2022/11/11 11/11/2022 11/11/2027
Centro Estadual de Educação Tecnológica Paula Souza CEETEPS-PRC-2021/03571 SAEE - Soluções de Aprendizagem Empresa Escola Eireli Concessão de Estágios... 2022/11/03 03/11/2022 03/11/2027
Centro Estadual de Educação Tecnológica Paula Souza CEETEPS-PRC – 2020/00026 Irmandade Santa Casa de Misericórdia de Matão Concessão de Estágios... 2022/10/06 06/10/2022 06/10/2027
Centro Estadual de Educação Tecnológica Paula Souza CEETEPS-PRC – 2022/30037 Estagio Sul Recursos Humanos Ltda Concessão de Estágios... 2022/10/05 05/10/2022 05/10/2027
Centro Estadual de Educação Tecnológica Paula Souza CEETEPS-PRC – 2022/28959 Enterprise Solution Ltda Concessão de Estágios... 2022/10/05 05/10/2022 05/10/2027
Centro Estadual de Educação Tecnológica Paula Souza CEETEPS-PRC – 2022/45526 Instituto de Apoio a programas de estágio - IAPE Concessão de Estágios... 1970/01/01 23/09/2022 23/09/2027
Centro Estadual de Educação Tecnológica Paula Souza CEETEPS-PRC – 2022/29138 WALL JOBS Tecnologia Ltda. Concessão de Estágios... 1970/01/01 21/09/2022 21/09/2027
Centro Estadual de Educação Tecnológica Paula Souza CEETEPS-PRC – 2022/28075 Recrutamento e Seleção IUDS - Estagiando Ltda. Concessão de Estágios... 1970/01/01 16/09/2022 16/09/2027
Centro Estadual de Educação Tecnológica Paula Souza CEETEPS-PRC – 2022/28427 AGIEL - Agência de Integração Empresa Escola Ltda Concessão de Estágios... 1970/01/01 16/09/2022 16/09/2027
CEETEPS CEETEPS-PRC-2022/39155 INTEGRAR SP SOLUÇÕES EM ESTÁGIOS LTDA. Concessão de Estágios... 1970/01/01 31/03/2023 31/03/2028
CEETEPS CEETEPS-PRC-2023/03228 EVO Estágio VP Seleção e Consultoria Ltda. Concessão de Estágios... 1970/01/01 31/03/2023 31/03/2028
CEETEPS CEETEPS-PRC-2022/36194 AVANCE INTEGRADORA DE ESTÁGIOS EIRELI Concessão de Estágios... 1970/01/01 31/03/2023 31/03/2028
CEETEPS CEETEPS-PRC-2022/36411 ENYGMA TECNOLOGIA EM INFORMATICA LTDA. Concessão de Estágios... 1970/01/01 29/03/2023 29/03/2028
CEETEPS CEETEPS-PRC-2022/39757 STAG CENTRAL DE ESTÁGIOS LTDA Concessão de Estágios... 1970/01/01 29/03/2023 29/03/2028
CEETEPS CEETEPS-PRC-2022/36983 ISBET - INSTITUTO BRASILEIRO PRO-EDUCAÇÃO, TRABALHO E DESENVOLVIMENTO Concessão de Estágios... 1970/01/01 29/03/2023 29/03/2028
CEETEPS CEETEPS-PRC-2022/37251 CAPACITARE RECURSOS HUMANOS EIRELI Concessão de Estágios... 1970/01/01 29/03/2023 29/03/2028
CEETEPS CEETEPS-PRC-2022/34479 PET Dantas - João Carlos dos Anjos Araújo Concessão de Estágios... 1970/01/01 23/03/2023 23/03/2028
CEETEPS CEETEPS-PRC-2022/36659 Núcleo de Atendimento ao Jovem Aprendiz - Fundação Mirim Tupã Concessão de Estágios... 2023/03/10 10/03/2023 10/03/2028
CEETEPS CEETEPS-PRC-2022/39429 Prospere Estágios e Recursos Humanos Ltda Concessão de Estágios... 2023/03/10 10/03/2023 10/03/2028
CEETEPS CEETEPS-PRC-2022/40107 Ramires & Tavares Ltda. Concessão de Estágios... 2023/03/03 03/03/2023 03/03/2028
CEETEPS CEETEPS-PRC-2022/37303 CIDE - CAPACITAÇÃO, INSERÇÃO E DESENVOLVIMENTO Concessão de Estágios... 2023/02/09 09/02/2023 09/02/2028
CEETEPS CEETEPS-PRC-2022/19921 IRMANDADE DE SANTA CASA DE MISERICÓRDIA DE MOCOCA. Concessão de Estágios... 2023/02/09 09/02/2023 09/02/2028
CEETEPS CEETEPS-PRC-2022/19886 Lar dos Velhinhos Dr. Adolpho Barreto Concessão de Estágios... 2023/02/09 09/02/2023 09/02/2028
CEETEPS CEETEPS-PRC-2022/35776 CAEEP TREINAMENTOS E ESTÁGIOS LTDA. Concessão de Estágios... 2023/02/03 03/02/2023 03/02/2028
CEETEPS CEETEPS-PRC-2022/35463 Instituto Técnico Educacional Mirian Menchini - ITEMM Concessão de Estágios... 2023/02/02 02/02/2023 02/02/2028
CEETEPS CEETEPS-PRC-2022/36649 Quali Serviços de Integração e Gerenciamento de Contratos Ltda. Concessão de Estágios... 1970/01/01 27/01/2023 27/01/2028
CEETEPS CEETEPS-PRC-2022/38382 PROEJA - Projeto Educação de Adultos e Jovens de Araraquara. Concessão de Estágios... 2023/01/10 10/01/2023 10/01/2028
CEETEPS CEETEPS-PRC-2022/39086 Meso Carreira e Gestão Ltda Concessão de Estágios... 1970/01/01 27/12/2022 27/12/2027
CEETEPS CEETEPS-PRC-2022/34393 Academia do Universitário Desenvolvimento Profissional Ltda Concessão de Estágios... 1970/01/01 27/12/2022 27/12/2027
CEETEPS CEETEPS-PRC-2023/02504 FABIO RODRIGO DO NASCIMENTO EIRELI - PRO-JOVEM RH Concessão de Estágios... 1970/01/01 31/03/2023 31/03/2028
Unidade Processo Objeto Início Término Link
Fatec Indaiatuba (105) 136.00001388/2023-43 Município de Indaiatuba 1970/01/01 15/09/2023 15/09/2028
Etec Prof. Armando José Farinazzo (138) 1575151/2018 2019/03/04 04/03/2019 04/03/2024
Fatec Guarulhos (167) 1006861/2019 Município de Guarulhos 1970/01/01 16/01/2020 15/01/2025
Unidade Processo Instituição/Empresa Objeto Início Término Link
Centro Estadual de Educação Tecnológica Paula Souza 1333289/2018 Secretaria Municipal da Educação - SME-CEUS Instalação de Classes Descentralizadas nos 22 Ce... 1970/01/01 24/05/2018 22/05/2023
CEETEPS 1887417/2018 (Processo da SEE nº 1318523/2018) Secretaria da Educação - SEE - Expansão II Consolidação do Programa Expansão da Educação... 1970/01/01 23/12/2018 22/12/2023
Unidade Processo Instituição/Empresa Objeto Início Término Link
CEETEPS 3642/2014 ARISP Atender aos pedidos do Poder Público no que tange... 2014/04/09 09/04/2014 25/12/2030
CEETEPS (CETEC/CESU) 5837/2017 Embarcadero do Brasil Tecnologia Ltda. EMBARCADERO cede ao CEETEPS gratuitamente, sem qua... 2017/11/10 10/11/2017 10/11/2022
Etec Doutor José Luiz Viana Coutinho (073) 725833/2020 Precisão Sistemas Realização do Programa P-Tech Centro Paula Souza... 2020/10/07 07/10/2020 07/10/2023
Etec Doutor José Luiz Viana Coutinho (073) 726133/2020 Siscomp Realização do Programa P-Tech Centro Paula Souza... 2020/10/07 07/10/2020 07/10/2025
Etec Doutor José Luiz Viana Coutinho (073) 726257/2020 SistemasBR Soluções em Tecnologia Realização do Programa P-Tech Centro Paula Souza... 2020/10/07 07/10/2020 07/10/2023
Etec Doutor José Luiz Viana Coutinho (073) 725592/2020 Loop Sistemas Realização do Programa P-Tech Centro Paula Souza... 2020/10/07 07/10/2020 07/10/2023
Fatec José Crespo Gonzales (003) 726348/2020 Tegra Ltda. Realização do Programa P-Tech Centro Paula Souza... 2020/10/02 02/10/2020 02/10/2025
Fatec José Crespo Gonzales (003) 726469/2020 Unoerp Informática Ltda. Realização do Programa P-Tech Centro Paula Souza... 2020/10/02 02/10/2020 02/10/2025
Fatec Prof. Wilson Roberto Ribeiro de Camargo (132) 725227/2020 Erpflex Software Ltda. Realização do Programa P-Tech Centro Paula Souza... 2020/10/02 02/10/2020 02/10/2025
Etec Martinho Di Ciero (086) e Fatec Dom Amaury Castanho (178) 726077/2020 Senior Sistemas - Mega Possibilitar aos alunos do Ensino Médio com habil... 1970/01/01 28/09/2020 28/09/2025
Fatec Professor Jessen Vidal (146) 1282080/2019 (Casa Militar – Processo 2077662/2019) Casa Militar do Gabinete do Governador Implantação do Centro de Estudos e Pesquisas sob... 1970/01/01 30/04/2020 30/04/2025
Fatec Padre Danilo José de Oliveira Ohl (209) 595386/2019 Bomi Group Brasil - Biomedical Distribuition Mercosur Ltda. Propiciar aos alunos matriculados no Curso Superio... 2019/09/01 01/09/2019 30/08/2024
Etec Jorge Street - 011 2099822/2018 Volkswagen do Brasil Indústria de Veículos Automotores Ltda. possibilitar aos alunos do curso de Ensino Médio ... 2019/04/02 02/04/2019 02/04/2024
Fatec Padre Danilo José de Oliveira Ohl (209) - (CESU) 3519/2018 1323528/2018 Alcis Log Ltda. Direitos de uso do software WMS Smart Alcis, insta... 1970/01/01 19/12/2018 19/12/2022
Etec João Maria Stevanatto - 218 1986514/2018 Município de Itapira Programas de cooperação técnico-educacional com... 2018/12/11 11/12/2018 10/12/2023
Etec Polivalente de Americana (006) 1355428/2018 IBM Brasil – Indústria Máquinas e Serviços Ltda. construção do projeto curricular que articule o ... 1970/01/01 23/11/2018 23/11/2023
CEETEPS (CETEC) 2787/2018 1756716/2018 Instituto Federal de Educação, Ciência e Tecnologia Realização de Estudos e Pesquisas sobre a Histó... 1970/01/01 31/10/2018 31/10/2023
Etec Frei Arnaldo Maria de Itaporanga 307716/2022 Fundação Educacional de Votuporanga Cessão de instalações para realização de ativ... 2018/04/02 02/04/2018 01/04/2023
CEETEPS 4834/2017 Secretaria Estadual de Educação Implementar e desenvolver o Programa MedioTec das ... 1970/01/01 24/11/2017 24/11/2022
Etec de Lins (148) e Fatec Prof. Antonio Seabra (192) 726419/2020 Tray Tecnologia em Ecommerce Ltda. Realização do Programa P-Tech Centro Paula Souza... 2020/10/08 08/10/2020 08/10/2025
Administração Central (001) 136.00007881/2023-77 Fundação Arnaldo Vieira de Carvalho - FAVC Estabelecer programas e ações práticas de atual... 2023/02/09 09/02/2023 09/02/2025
Administração Central (001) 136.00015910/2023-74 Obra Social Dom Bosco Diplomar os alunos oriundos dos Cursos de Eletroel... 1970/01/01 22/12/2022 22/12/2027
Administração Central (001) 136.00017102/2023-41 Fundação de Apoio à Pesquisa de Pós-graduandos - FAPG Realização conjunta de esforços para a consecu... 1970/01/01 17/11/2022 17/11/2027
Administração Central (001) 136.00017098/2023-11 Fundação para o Desenvolvimento da Unesp - Fundunesp Realização conjunta de esforços para consecuç... 1970/01/01 13/09/2022 13/09/2027
Administração Central (001) 136.00017096/2023-22 Fundação de Apoio à Tecnologia -FAT Consecução de atividades de apoio à ICTESP na c... 1970/01/01 29/08/2022 29/08/2027
Etec Deputado Ary de Camargo Pedroso 136.00017092/2023-44 Fundação de Estudos Agrários Luiz de Queiroz - Fealq Parceria para desenvolvimento atividades pedagógi... 1970/01/01 25/03/2022 25/03/2026
Administração Central (001) CEETEPS-PRC-2021/08903 Pronave Pool Ltda. Programa de Articulação da Formação Profission... 1970/01/01 18/02/2022 18/02/2027
Administração Central (001) CEETEPS-PRC-2021/08900 CLA Logística e Armazenagem Ltda. Programa de Articulação da Formação Profission... 1970/01/01 18/02/2022 18/02/2027
Etec Jorge Street (011) 136.00062039/2023-06 Volkswagen doBrasil Termo de Comodato de veículos para uso estático,... 2021/11/04 04/11/2021 03/11/2023
Administração Central (001) 136.00017088/2023-86 Universidade Estadual Paulista Júlio de Mesquita Filho - UNESP, a Fundação para o Vestibular da UNESP - VUNESP e o Centro Estadual de Educação Tecnológica Paula Souza - Ceeteps Redução de 75% do valor correspondente à taxa d... 2021/01/03 03/01/2021 03/01/2026
Fatec Bebedouro (280) 1674984/2019 FUBAP - Fundação de Pesquisas Agroindustriais de Bebedouro (Coopercitrus) Instalação do Curso Superior de Tecnologia, na m... 1970/01/01 23/12/2020 22/12/2025
Fatec José Crespo Gonzales (003) 724949/2020 Eduzz Tecnologia Ltda. Realização do Programa P-Tech Centro Paula Souza... 2020/12/03 03/12/2020 03/12/2025
Etec Dr. Adail Nunes da Silva (019) e Fatec Taquaritinga (022) 726004/2020 Programmer's Informática Ltda. Realização do Programa P-Tech Centro Paula Souza... 1970/01/01 18/11/2020 18/11/2025
Administração Central (001) SES-PRC-2019/11238 Secretaria da Saúde do Estado de São Paulo Capacitar e disponibilizar equipe técnica e infra... 1970/01/01 16/11/2020 16/11/2022
Etec Dr. Adail Nunes da Silva (019) e Fatec Taquaritinga (022) 726044/2020 Programmer's Informática Ltda. Realização do Programa P-Tech Centro Paula Souza... 1970/01/01 16/11/2020 16/11/2025
Etec Jacinto Ferreira de Sá (066) 725655/2020 Cooperativa de Trabalho de Consultores COOPERSAP Realização do Programa P-Tech Centro Paula Souza... 2020/11/09 09/11/2020 09/11/2025
Etec de Lins (148) e Fatec Prof. Antonio Seabra (192) 7216419/2020 Tray Tecnologia em Ecommerce Ltda. Realização do Programa P-Tech Centro Paula Souza... 2020/10/08 08/10/2020 08/10/2025
Administração Central (001) 136.00013817/2023-25 Instituto Politécnico de Bragança Promover a parceria entre as instituições em ár... 1970/01/01 17/03/2023 17/03/2028
Unidade Processo Instituição/Empresa Objeto Início Término Link
Centro Estadual de Educação Tecnológica Paula Souza 6109/2017 Riga Technical University Intercâmbio estudantil e docente e pesquisadores ... 1970/01/01 30/01/2018 30/01/2023
Centro Estadual de Educação Tecnológica Paula Souza 1801304/2018 CONSULADO GERAL DO PERU EM SÃO PAULO Realizar Capacitações, Palestras e Atividades de... 1970/01/01 26/11/2018 26/11/2023
Centro Estadual de Educação Tecnológica Paula Souza 689908/2018 Instituto Politécnico de Portalegre Intercâmbio de estudantes, docentes, pesquisadore... 2018/11/01 01/11/2018 01/11/2023
Centro Estadual de Educação Tecnológica Paula Souza 724227/2018 Instituto Politécnico de Leiria Intercâmbio estudantil e docente e pesquisadores ... 2018/11/01 01/11/2018 01/11/2023
Centro Estadual de Educação Tecnológica Paula Souza 3076/2018 813066/2018 Instituto Politécnico de Cávado e do Ave Intercâmbio estudantil e docente e pesquisadores ... 2018/11/01 01/11/2018 01/11/2023
Centro Estadual de Educação Tecnológica Paula Souza 1733984/2018 Rede Internacional de Educação para o Trabalho - RIET Intercâmbio estudantil e docente.... 1970/01/01 30/10/2018 30/10/2023
Centro Estadual de Educação Tecnológica Paula Souza 3698/2018 813052/2018 Instituto Politécnico de Setúbal Intercâmbio estudantil e docente e pesquisadores ... 1970/01/01 30/10/2018 30/10/2023
Centro Estadual de Educação Tecnológica Paula Souza 1677/2018 813072/2018 BÉLGICA / Haute Ecole Libre Mosane Intercâmbio estudantil e docente, materiais, publ... 1970/01/01 30/10/2018 30/10/2023
Centro Estadual de Educação Tecnológica Paula Souza 1123/2018 St. Lawrence College of Ontário Intercâmbio estudantil e docente.... 1970/01/01 26/03/2018 26/03/2023
Centro Estadual de Educação Tecnológica Paula Souza 1676/2018 Consejo de Educacion Técnico Profesional Intercâmbio estudantil e docente e pesquisadores ... 1970/01/01 14/03/2018 14/03/2023
Centro Estadual de Educação Tecnológica Paula Souza 1269/2018 Emerging Technologies Institute - ETI Intercâmbio estudantil, docentes, pesquisadores e... 2018/03/09 09/03/2018 09/03/2023
Centro Estadual de Educação Tecnológica Paula Souza 3425/2017 352021/2019 Instituto Politécnico de Coimbra Intercâmbio estudantil e docente e pesquisadores ... 2018/03/09 09/03/2018 09/03/2023
Centro Estadual de Educação Tecnológica Paula Souza 1133/2018 Conselho Coordenador dos Institutos Superiores Politécnicos Intercâmbio estudantil e docente e pesquisadores ... 2018/03/02 02/03/2018 02/03/2023
Centro Estadual de Educação Tecnológica Paula Souza 1270/2018 Universidade de Aveiro Cooperação entre as instituições em áreas de ... 1970/01/01 16/05/2018 16/05/2023
Centro Estadual de Educação Tecnológica Paula Souza 106832/2019 Associação Nacional de Escolas Profissionais - ANESPO Intercâmbio de estudantes, docentes, pesquisadore... 2019/08/02 02/08/2019 01/08/2024
Centro Estadual de Educação Tecnológica Paula Souza 1018356/2019 University of Liberec Promover intercâmbio de estudantes; intercâmbio ... 1970/01/01 23/07/2019 22/07/2024
Centro Estadual de Educação Tecnológica Paula Souza 1931537/2018 Universidade de Coimbra - UC Elaboração e concretização conjunta de Projeto... 1970/01/01 25/06/2019 24/06/2024
Centro Estadual de Educação Tecnológica Paula Souza 2169624/2018 Cracow University of Technology - CUT Intercâmbio de estudantes, de docentes e pesquisa... 1970/01/01 25/06/2019 24/06/2024
Centro Estadual de Educação Tecnológica Paula Souza 1013140/2018 Universidad de La Fronteira - UFRO Intercâmbio de estudantes, docentes, pesquisadore... 1970/01/01 24/06/2019 23/06/2024
Centro Estadual de Educação Tecnológica Paula Souza 667139/2019 Alfred Nobel University Promover intercâmbio de estudantes; intercâmbio ... 1970/01/01 20/06/2019 19/06/2024
Centro Estadual de Educação Tecnológica Paula Souza 800005/2019 TKNIKA - Centro de investigação e Inovação Aplicada para a Formação Profissional do País Basco Promover intercâmbio de estudantes; intercâmbio ... 2019/06/07 07/06/2019 06/06/2024
Centro Estadual de Educação Tecnológica Paula Souza 3075/2018 1378119/2018 Instituto Politécnico de Viseu Definir e realizar Programas Conjuntos de Investig... 2019/03/11 11/03/2019 10/03/2024
Centro Estadual de Educação Tecnológica Paula Souza 93090/2019 Canadá Intercâmbio / Overseas 5 Educacion Inc. Intercâmbio de estudantes; organização conjunta... 1970/01/01 20/02/2019 20/02/2024
Centro Estadual de Educação Tecnológica Paula Souza 1728476/2018 Instituto Politécnico de Tomar Intercâmbio de estudantes, docentes, pesquisadore... 2019/02/07 07/02/2019 07/02/2024
Centro Estadual de Educação Tecnológica Paula Souza 1468354/2018 Universidade de Quilmes Intercâmbio de estudantes, docentes, pesquisadore... 1970/01/01 21/01/2019 21/01/2024
Centro Estadual de Educação Tecnológica Paula Souza 728552/2018 Univ. Nac. Del Noroeste da La Prov. de Buenos Aires - UNNOBA Intercâmbio estudantil e docente e pesquisadores ... 2018/12/12 12/12/2018 12/12/2023
Centro Estadual de Educação Tecnológica Paula Souza 1931900/2018 Escola Universitária Mediterrani - EUM Intercâmbio estudantil, docente, pesquisadores e ... 2018/12/10 10/12/2018 10/12/2023
Centro Estadual de Educação Tecnológica Paula Souza 1484293/2019 Universitat de Girona Promover intercâmbio de estudantes; intercâmbio ... 2019/08/05 05/08/2019 04/08/2024
Centro Estadual de Educação Tecnológica Paula Souza 1810339/2019 CECAR - Universidade Corporation do Caribe Intercâmbio de estudantes, de docentes e pesquisa... 1970/01/01 16/08/2019 15/08/2024
Centro Estadual de Educação Tecnológica Paula Souza 107485/2019 Fundacion Instituto Profesional - DUOC UC Intercâmbio de corpo acadêmico, corpo de pesqui... 2019/09/06 06/09/2019 05/09/2024
Centro Estadual de Educação Tecnológica Paula Souza 2513501/2019 Instituto Politécnico de Viana do Castelo - IPVC Promover intercâmbio de estudantes; intercâmbio ... 1970/01/01 13/09/2019 12/09/2024
Centro Estadual de Educação Tecnológica Paula Souza 1477801/2019 Expanish-Centros de Español S. A. Promover intercâmbio de estudantes; organização... 1970/01/01 23/09/2019 22/09/2024
Centro Estadual de Educação Tecnológica Paula Souza 2265/2018 1290486/2018 Fundacion Despachantes de Aduana del Uruguay - FDAU - CEA Promover intercâmbio de estudantes; intercâmbio ... 1970/01/01 24/09/2019 23/09/2024
Centro Estadual de Educação Tecnológica Paula Souza 1337923/2019 Wildau Technical University of Applied Sciences Promover laços culturais e acadêmicos; atividade... 1970/01/01 27/09/2019 26/09/2024
Centro Estadual de Educação Tecnológica Paula Souza CEETEPS-PRC-2022/02921 Universidad Del Azuay - Equador. Promover a parceria entre as instituições em ár... 1970/01/01 30/12/2022 30/12/2026
Centro Estadual de Educação Tecnológica Paula Souza 136.00013767/2023-86 MAIÊUTICA - cooperativa de ensino superior (CRL), entidade instituidora da Universitário da Maia - UMAIA e Instituto Politécnico de Maia - IPMAIA - Portugal Promover a parceria entre as instituições em ár... 1970/01/01 25/10/2022 25/10/2026
Centro Estadual de Educação Tecnológica Paula Souza 136.00013788/2023-00 Instituto Politécnico de Santarém - Portugal Promover a parceria entre as instituições em ár... 1970/01/01 25/10/2022 25/10/2026
Centro Estadual de Educação Tecnológica Paula Souza 136.00013444/2023-92 Universidad Tecnologica Ecotec - Samborondón - Equador Promover a parceria entre as instituições em ár... 1970/01/01 23/06/2022 23/06/2026
Centro Estadual de Educação Tecnológica Paula Souza 136.00013738/2023-14 Universidad Gerardo Barrios - El Salvador Promover a parceria entre asinstituições em áre... 1970/01/01 31/05/2022 31/05/2027
Centro Estadual de Educação Tecnológica Paula Souza SPDoc 1773619/2020 Universidad Nacional Arturo Jauretche - UNAJ Promover a parceria entre as instituições em ár... 1970/01/01 23/05/2022 23/05/2027
Centro Estadual de Educação Tecnológica Paula Souza 136.00013664/2023-16 SynHERA Promover a parceria ent re as instituições em á... 2022/04/01 01/04/2022 01/04/2027
Centro Estadual de Educação Tecnológica Paula Souza 3383221/2019 Catalunya - CCBC Promover a parceria entre as instituições em ár... 1970/01/01 15/03/2022 15/03/2027
Centro Estadual de Educação Tecnológica Paula Souza 3130823/2019 Escola Universitària Salesiana de Sarrià - EUSS Promover a parceria entre as instituições em ár... 1970/01/01 22/02/2022 22/02/2027
Centro Estadual de Educação Tecnológica Paula Souza SPDoc 2007459/2019 Universidad Nacional de Santiago del Estero - UNSE Promover intercambios em areas de interese mutuo, ... 2021/10/12 12/10/2021 12/10/2026
Centro Estadual de Educação Tecnológica Paula Souza 136.00013439/2023-80 Sault College Cooperação em programas educacionais; intecâmbi... 1970/01/01 30/03/2021 29/03/2025
Centro Estadual de Educação Tecnológica Paula Souza 136.00013401/2023-15 Northern Lights College - NLC Cooperação em programas educacionais; intecâmbi... 1970/01/01 29/03/2021 28/03/2025
Centro Estadual de Educação Tecnológica Paula Souza 95508/2019 UNCUYO - Universidad Nacional de Cuyo Intercãmbio estudantil e docente... 1970/01/01 30/09/2020 29/09/2025
Centro Estadual de Educação Tecnológica Paula Souza 3183796/2019 Consejeria de Educación, Formación Profesional y Universidade Colaboração Educativa (Ministério de Educación... 2020/03/10 10/03/2020 09/03/2024
Centro Estadual de Educação Tecnológica Paula Souza 3389579/2019 Universidad Ramon Llull - La Salle Promover intercâmbio de estudantes; intercâmbio ... 1970/01/01 23/01/2020 22/01/2025
Centro Estadual de Educação Tecnológica Paula Souza 3438385/2019 KEISP - Consulado Geral da República da Coréia em São Paulo Promover intercâmbio de estudantes; intercâmbio ... 2020/01/10 10/01/2020 09/01/2025
Centro Estadual de Educação Tecnológica Paula Souza 2692789/2019 IPP - Instituto Politécnico de Porto Promover intercâmbio de estudantes; intercâmbio ... 2019/12/09 09/12/2019 08/12/2024
Centro Estadual de Educação Tecnológica Paula Souza SPDoc 1892195/2019 Universidad Politecnica de Sinaloa Promover a parceria entre as instituições em ár... 2019/12/02 02/12/2019 02/12/2024
Centro Estadual de Educação Tecnológica Paula Souza 2100596/2019 UM - Universidad Mayor Promover intercâmbio de estudantes; intercâmbio ... 1970/01/01 30/09/2019 29/09/2024
Centro Estadual de Educação Tecnológica Paula Souza 6844/2017 1281235/2018 University of L'Aquila Promover intercâmbio de estudantes; intercâmbio ... 1970/01/01 30/09/2019 29/09/2024
Centro Estadual de Educação Tecnológica Paula Souza 136.00013843/2023-53 Instituto Politécnico de Castelo Branco - Portugal Promover a parceria entre as instituições em ár... 1970/01/01 17/03/2023 17/03/2028
Unidade Processo Instituição/Empresa Objeto Início Término Link
19 3132317/2019 APM da Etec Doutor Adail Nunes da Silva Ampliar e fortalecer as atividades administrativas... 1970/01/01 Em elaboração
140 3088610/2019 APM da Etec Professora Terezinha Monteiro dos Santos Ampliar e fortalecer as atividades administrativas... 1970/01/01 Em elaboração
101 3027572/2019 APM da Etec Salles Gomes Ampliar e fortalecer as atividades administrativas... 1970/01/01 Em elaboração
125 3141485/2019 APM da Etec Doutor Geraldo José Rodrigues Alckmin Ampliar e fortalecer as atividades administrativas... 1970/01/01 Em elaboração
156 3362912/2019 APM da Etec Professora Nair Luccas Ribeiro Ampliar e fortalecer as atividades administrativas... 1970/01/01 Em elaboração
179 3148632/2019 APM da Etec de Vargem Grande do Sul Ampliar e fortalecer as atividades administrativas... 1970/01/01 Em elaboração
197 945990/2020 APM da Etec de Votorantim Ampliar e fortalecer as atividades administrativas... 1970/01/01 Em elaboração
37 3116336/2019 APM da Etec Frei Arnaldo Maria de Itaporanga Ampliar e fortalecer as atividades administrativas... 1970/01/01 Em elaboração
220 3053087/2019 APM da Etec Parque Belém Ampliar e fortalecer as atividades administrativas... 1970/01/01 Em elaboração
221 3140207/2019 APM da Etec Jardim Ângela Ampliar e fortalecer as atividades administrativas... 1970/01/01 Em elaboração
223 3533249/2019 APM da Etec Cepam Ampliar e fortalecer as atividades administrativas... 1970/01/01 Em elaboração
225 3199820/2019 APM da Etec Raposo Tavares Ampliar e fortalecer as atividades administrativas... 1970/01/01 Em elaboração
227 3092313/2019 APM da Etec São Mateus Ampliar e fortalecer as atividades administrativas... 1970/01/01 Em elaboração
229 3096445/2019 APM da Etec Paulistano Ampliar e fortalecer as atividades administrativas... 1970/01/01 Em elaboração
253 761042/2020 APM da Etec Jornalista Roberto Marinho Ampliar e fortalecer as atividades administrativas... 1970/01/01 Em elaboração
260 3187719/2019 APM da Etec Santa Ifigênia Ampliar e fortalecer as atividades administrativas... 1970/01/01 Em elaboração
267 3073085/2019 APM da Etec de Esportes Curt Walter Otto Baumgart Ampliar e fortalecer as atividades administrativas... 1970/01/01 Em elaboração
285 3143595/2019 APM da Etec Itaquera II Ampliar e fortalecer as atividades administrativas... 1970/01/01 Em elaboração
236 3483553/2019 APM da Etec Gustavo Teixeira Ampliar e fortalecer as atividades administrativas... 1970/01/01 Em elaboração
116 3198414/2019 APM da Etec de São Roque Ampliar e fortalecer as atividades administrativas... 1970/01/01 Em elaboração
188 3136885/2019 APM da Etec de São Sebastião Ampliar e fortalecer as atividades administrativas... 1970/01/01 Em elaboração
57 3172714/2019 APM da Etec Professor Francisco dos Santos Ampliar e fortalecer as atividades administrativas... 1970/01/01 Em elaboração
194 3161184/2019 APM da Etec Doutora Ruth Cardoso Ampliar e fortalecer as atividades administrativas... 1970/01/01 Em elaboração
16 3452563/2019 APM da Etec Fernando Prestes Ampliar e fortalecer as atividades administrativas... 1970/01/01 Em elaboração
17 3474784/2019 APM da Etec Rubens Faria e Souza Ampliar e fortalecer as atividades administrativas... 1970/01/01 Em elaboração
264 3064549/2019 APM da Etec Armando Panunzzio Ampliar e fortalecer as atividades administrativas... 1970/01/01 Em elaboração
287 3156012/2019 APM da Etec João Elias Margutti Ampliar e fortalecer as atividades administrativas... 1970/01/01 Em elaboração
83 3169610/2019 APM da Etec Manoel dos Reis de Araújo Ampliar e fortalecer as atividades administrativas... 1970/01/01 Em elaboração
195 3120187/2019 APM da Etec Professora Ilza Nascimento Pintus Ampliar e fortalecer as atividades administrativas... 1970/01/01 Em elaboração
12 3170073/2019 APM da Etec Professor Camargo Aranha Ampliar e fortalecer as atividades administrativas... 1970/01/01 Em elaboração
13 3078908/2019 APM da Etec Getúlio Vargas Ampliar e fortalecer as atividades administrativas... 1970/01/01 Em elaboração
18 3181042/2019 APM da Etec de São Paulo Ampliar e fortalecer as atividades administrativas... 1970/01/01 Em elaboração
34 3145409/2019 APM da Etec Professor Aprígio Gonzaga Ampliar e fortalecer as atividades administrativas... 1970/01/01 Em elaboração
41 3068541/2019 APM da Etec Professor Basílides de Godoy Ampliar e fortalecer as atividades administrativas... 1970/01/01 Em elaboração
45 3150187/2019 APM da Etec Carlos de Campos Ampliar e fortalecer as atividades administrativas... 1970/01/01 Em elaboração
64 3043890/2019 APM da Etec Professor Horácio Augusto da Silveira Ampliar e fortalecer as atividades administrativas... 1970/01/01 Em elaboração
118 3167424/2019 APM da Etec de Guaianazes Ampliar e fortalecer as atividades administrativas... 1970/01/01 Em elaboração
134 3155693/2019 APM da Etec Carolina Carinhato Sampaio Ampliar e fortalecer as atividades administrativas... 1970/01/01 Em elaboração
154 3175913/2019 APM da Etec Doutora Maria Augusta Saraiva Ampliar e fortalecer as atividades administrativas... 1970/01/01 Em elaboração
159 3051408/2019 APM da Etec Parque da Juventude Ampliar e fortalecer as atividades administrativas... 1970/01/01 Em elaboração
169 3099389/2019 APM da Etec de Itaquera I Ampliar e fortalecer as atividades administrativas... 1970/01/01 Em elaboração
180 3133824/2019 APM da Etec de Artes Ampliar e fortalecer as atividades administrativas... 1970/01/01 Em elaboração
185 3182059/2019 APM da Etec de Vila Formosa Ampliar e fortalecer as atividades administrativas... 1970/01/01 Em elaboração
186 3155859/2019 APM da Etec Tereza Aparecida Cardoso Nunes de Oliveira Ampliar e fortalecer as atividades administrativas... 1970/01/01 Em elaboração
200 3048833 APM da Etec Takashi Morita Ampliar e fortalecer as atividades administrativas... 1970/01/01 Em elaboração
0 3140409/2019 APM da Etec de Heliópolis Ampliar e fortalecer as atividades administrativas... 1970/01/01 Em elaboração
208 3184583/2019 APM da Etec de Tiquatira Ampliar e fortalecer as atividades administrativas... 1970/01/01 Em elaboração
211 3174766/2019 APM da Etec Zona Leste Ampliar e fortalecer as atividades administrativas... 1970/01/01 Em elaboração
99 3356070/2019 APM da Etec Professor Milton Gazzetti Ampliar e fortalecer as atividades administrativas... 1970/01/01 Em elaboração
80 3156975/2019 APM da Etec Doutor Luiz Cesar Couto Ampliar e fortalecer as atividades administrativas... 1970/01/01 Em elaboração
58 3070176/2019 APM da Etec Deputado Francsico Franco Ampliar e fortalecer as atividades administrativas... 1970/01/01 Em elaboração
239 3198545/2019 APM da Etec de Registro Ampliar e fortalecer as atividades administrativas... 1970/01/01 Em elaboração
141 3083436/2019 APM da APM da Etec Professora Maria Cristina Medeiros Ampliar e fortalecer as atividades administrativas... 1970/01/01 Em elaboração
36 3162636/2019 APM da Etec Armando Bayeux da Silva Ampliar e fortalecer as atividades administrativas... 1970/01/01 Em elaboração
282 3151629/2019 APM da Etec de Rio Grande da Serra Ampliar e fortalecer as atividades administrativas... 1970/01/01 Em elaboração
117 3029726/2019 APM da Etec Professor Doutor José Dagnoni Ampliar e fortalecer as atividades administrativas... 1970/01/01 Em elaboração
277 3514090/2019 APM da Etec de Santa Fé do Sul Ampliar e fortalecer as atividades administrativas... 1970/01/01 Em elaboração
219 3046735/2019 APM da Etec de Santa Isabel Ampliar e fortalecer as atividades administrativas... 1970/01/01 Em elaboração
0 3200312/2019 APM da Etec Professora Ermelinda Giannini Teixeira Ampliar e fortalecer as atividades administrativas... 1970/01/01 Em elaboração
262 3383157/2019 APM da Etec Bartolomeu Bueno da Silva - Anhanguera Ampliar e fortalecer as atividades administrativas... 1970/01/01 Em elaboração
14 485968/2020 APM da Etec Júlio de Mesquita Ampliar e fortalecer as atividades administrativas... 1970/01/01 Em elaboração
35 3120521/2019 APM da Etec Aristóteles Ferreira Ampliar e fortalecer as atividades administrativas... 1970/01/01 Em elaboração
122 3061352/2019 APM da Etec Dona Escolástica Rosa Ampliar e fortalecer as atividades administrativas... 1970/01/01 Em elaboração
10 3203874/2019 APM da Etec Lauro Gomes Ampliar e fortalecer as atividades administrativas... 1970/01/01 Em elaboração
11 3117911/2019 APM da Etec Jorge Street Ampliar e fortalecer as atividades administrativas... 1970/01/01 Em elaboração
94 3049059/2019 APM da Etec Pedro Badran Ampliar e fortalecer as atividades administrativas... 1970/01/01 Em elaboração
150 3028536/2019 APM da Etec Professor Rodolpho José Del Guerra Ampliar e fortalecer as atividades administrativas... 1970/01/01 Em elaboração
98 3171259/2019 APM da Etec Philadelpho Gouvea Netto Ampliar e fortalecer as atividades administrativas... 1970/01/01 Em elaboração
234 3018934/2019 APM da Etec Ferrucio Humberto Gazzetta Ampliar e fortalecer as atividades administrativas... 1970/01/01 Em elaboração
212 3220146/2019 APM da Etec Professora Marinês Teodoro de Freitas Almeida Ampliar e fortalecer as atividades administrativas... 1970/01/01 Em elaboração
232 3278764/2019 APM da Etec Professor José Carlos Seno Junior Ampliar e fortalecer as atividades administrativas... 1970/01/01 Em elaboração
25 3098839/2019 APM da Etec Professor Alcídio de Souza Prado Ampliar e fortalecer as atividades administrativas... 1970/01/01 Em elaboração
242 3155364/2019 APM da Etec Dr. Celso Giglio Ampliar e fortalecer as atividades administrativas... 1970/01/01 Em elaboração
27 3050305/2019 APM da Etec Amim Jundi Ampliar e fortalecer as atividades administrativas... 1970/01/01 Em elaboração
66 3171669/2019 APM da Etec Jacinto Ferreira de Sá Ampliar e fortalecer as atividades administrativas... 1970/01/01 Em elaboração
164 314518/2020 APM da Etec Professor Mário Antônio Verza Ampliar e fortalecer as atividades administrativas... 1970/01/01 Em elaboração
39 32007074/2019 APM da Etec Augusto Tortolero de Araújo Ampliar e fortalecer as atividades administrativas... 1970/01/01 Em elaboração
69 3191846/2019 APM da Etec João Jorge Geraissate Ampliar e fortalecer as atividades administrativas... 1970/01/01 Em elaboração
266 1418328/2020 APM da Etec de Peruíbe Ampliar e fortalecer as atividades administrativas... 1970/01/01 Em elaboração
203 3168014/2019 APM da Etec de Piedade Ampliar e fortalecer as atividades administrativas... 1970/01/01 Em elaboração
68 3117583/2019 APM da Etec João Gomes de Araújo Ampliar e fortalecer as atividades administrativas... 1970/01/01 Em elaboração
56 3083589/2019 APM da Etec Coronel Fernando Febeliano da Costa Ampliar e fortalecer as atividades administrativas... 1970/01/01 Em elaboração
193 3094556/2019 APM da Etec Deputado Ary de Camargo Pedroso Ampliar e fortalecer as atividades administrativas... 1970/01/01 Em elaboração
139 3180760/2019 APM da Etec Tenente Aviador Gustavo Klug Ampliar e fortalecer as atividades administrativas... 1970/01/01 Em elaboração
289 3176453/2019 APM da Etec de Porto Feliz Ampliar e fortalecer as atividades administrativas... 1970/01/01 Em elaboração
202 3179375/2019 APM da Etec Professor Jadyr Salles Ampliar e fortalecer as atividades administrativas... 1970/01/01 Em elaboração
153 3176505/2019 APM da Etec de Praia Grande Ampliar e fortalecer as atividades administrativas... 1970/01/01 Em elaboração
32 800696/2020 APM da Etec Professor Dr. Antonio Eufrásio Toledo Ampliar e fortalecer as atividades administrativas... 1970/01/01 Em elaboração
8 3181632/2019 APM da Etec Vasco Antonio Venchiarutti Ampliar e fortalecer as atividades administrativas... 1970/01/01 Em elaboração
42 3085592/2019 APM da Etec Benedito Storani Ampliar e fortalecer as atividades administrativas... 1970/01/01 Em elaboração
110 3170151/2019 APM da Etec Deputado Salim Sedeh Ampliar e fortalecer as atividades administrativas... 1970/01/01 Em elaboração
244 3137894/2019 APM da Etec Cidade do Livro Ampliar e fortalecer as atividades administrativas... 1970/01/01 Em elaboração
104 3045544/2019 APM da Etec Trajano Camargo Ampliar e fortalecer as atividades administrativas... 1970/01/01 Em elaboração
148 3157199/2019 APM da Etec de Lins Ampliar e fortalecer as atividades administrativas... 1970/01/01 Em elaboração
240 3199960/2019 APM da Etec Padre Carlos Leôncio da Silva Ampliar e fortalecer as atividades administrativas... 1970/01/01 Em elaboração
271 216431/2020 APM da Etec de Mairiporã Ampliar e fortalecer as atividades administrativas... 1970/01/01 Em elaboração
235 3178784/2019 APM da Etec de Mairinque Ampliar e fortalecer as atividades administrativas... 1970/01/01 Em elaboração
31 3198042/2019 APM da Etec Antonio Devisate Ampliar e fortalecer as atividades administrativas... 1970/01/01 Em elaboração
128 3165342/2019 APM da Etec de Mauá Ampliar e fortalecer as atividades administrativas... 1970/01/01 Em elaboração
9 3164542/2019 APM da Etec João Baptista de Lima Figueiredo Ampliar e fortalecer as atividades administrativas... 1970/01/01 Em elaboração
60 3194672/2019 APM da Etec Francisco Garcia Ampliar e fortalecer as atividades administrativas... 1970/01/01 Em elaboração
15 3119622/2019 APM da Etec Presidente Vargas Ampliar e fortalecer as atividades administrativas... 1970/01/01 Em elaboração
206 3148764/2019 APM da Etec Euro Albino de Souza Ampliar e fortalecer as atividades administrativas... 1970/01/01 Em elaboração
96 3545880/2019 APM da Etec Pedro Ferreira Alves Ampliar e fortalecer as atividades administrativas... 1970/01/01 Em elaboração
107 131902/2020 APM da Etec Adolpho Berezin Ampliar e fortalecer as atividades administrativas... 1970/01/01 Em elaboração
255 3179631/2019 APM da Etec Alcides Cestari Ampliar e fortalecer as atividades administrativas... 1970/01/01 Em elaboração
75 3120318/2019 APM da Etec Padre José Nunes Dias Ampliar e fortalecer as atividades administrativas... 1970/01/01 Em elaboração
198 3189276/2019 APM da Etec de Monte Mor Ampliar e fortalecer as atividades administrativas... 1970/01/01 Em elaboração
26 3131984/2019 APM da Etec Professor Alfredo de Barros Santos Ampliar e fortalecer as atividades administrativas... 1970/01/01 Em elaboração
256 3030477/2019 APM da Etec Bento Carlos Botelho do Amaral Ampliar e fortalecer as atividades administrativas... 1970/01/01 Em elaboração
152 3454768/2019 APM da Etec Alberto Santos Dumont Ampliar e fortalecer as atividades administrativas... 1970/01/01 Em elaboração
295 1418242/2020 APM da Etec de Guarulhos Ampliar e fortalecer as atividades administrativas... 1970/01/01 Em elaboração
263 3197870/2019 APM da Etec de Ibaté Ampliar e fortalecer as atividades administrativas... 1970/01/01 Em elaboração
161 3157875/2019 APM da Etec Vereador e Vice- Prefeito Sérgio da Fonseca Ampliar e fortalecer as atividades administrativas... 1970/01/01 Em elaboração
65 3182378/2019 APM da Etec de Ilha Solteira Ampliar e fortalecer as atividades administrativas... 1970/01/01 Em elaboração
97 3214675/2019 APM da Etec Professor Pedro Leme Brisolla Sobrinho Ampliar e fortalecer as atividades administrativas... 1970/01/01 Em elaboração
158 3195058/2019 APM da Etec de Itanhaém Ampliar e fortalecer as atividades administrativas... 1970/01/01 Em elaboração
261 3154276/2019 APM da Etec Darcy Pereira de Moraes Ampliar e fortalecer as atividades administrativas... 1970/01/01 Em elaboração
218 3615246/2019 APM da Etec João Maria Stevanatto Ampliar e fortalecer as atividades administrativas... 1970/01/01 Em elaboração
249 3155908/2019 APM da Etec de Itaquaquecetuba Ampliar e fortalecer as atividades administrativas... 1970/01/01 Em elaboração
243 3041107/2019 APM da Etec de Itararé Ampliar e fortalecer as atividades administrativas... 1970/01/01 Em elaboração
100 33390/2020 APM da Etec Rosa Perrone Scavone Ampliar e fortalecer as atividades administrativas... 1970/01/01 Em elaboração
86 3244552/2019 APM da Etec Martinho Di Ciero Ampliar e fortalecer as atividades administrativas... 1970/01/01 Em elaboração
233 3158012/2019 APM da Etec Professor José Ignácio Azevedo Filho Ampliar e fortalecer as atividades administrativas... 1970/01/01 Em elaboração
48 3019619/2019 APM da Etec Cônego José Bento Ampliar e fortalecer as atividades administrativas... 1970/01/01 Em elaboração
268 3033570/2019 APM da Etec Prefeito Braz Paschoalin Ampliar e fortalecer as atividades administrativas... 1970/01/01 Em elaboração
70 3182171/2019 APM da Etec Joaquim Ferreira do Amaral Ampliar e fortalecer as atividades administrativas... 1970/01/01 Em elaboração
90 3198031/2019 APM da Etec Professor Urias Ferreira Ampliar e fortalecer as atividades administrativas... 1970/01/01 Em elaboração
62 3518165/2019 APM da Etec Professora Helcy Moreira Martins Aguiar Ampliar e fortalecer as atividades administrativas... 1970/01/01 Em elaboração
279 3257556/2019 APM da Etec Paulo do Carmo Monteiro Ampliar e fortalecer as atividades administrativas... 1970/01/01 Em elaboração
201 3164993/2019 APM da Etec de Campo Limpo Paulista Ampliar e fortalecer as atividades administrativas... 1970/01/01 Em elaboração
81 3204319/2019 APM da Etec Professor Luiz Pires Barbosa Ampliar e fortalecer as atividades administrativas... 1970/01/01 Em elaboração
124 3129573/2019 APM da Etec Doutor Celso Charuri Ampliar e fortalecer as atividades administrativas... 1970/01/01 Em elaboração
213 3454333/2019 APM da Etec de Caraguatatuba Ampliar e fortalecer as atividades administrativas... 1970/01/01 Em elaboração
144 3093887/2019 APM da Etec de Carapicuíba Ampliar e fortalecer as atividades administrativas... 1970/01/01 Em elaboração
59 3174291/2019 APM da Etec Doutor Francisco Nogueira de Lima Ampliar e fortalecer as atividades administrativas... 1970/01/01 Em elaboração
54 3172521/2019 APM da Etec Elias Nechar Ampliar e fortalecer as atividades administrativas... 1970/01/01 Em elaboração
72 3088019/2019 APM da Etec Prefeito José Esteves Ampliar e fortalecer as atividades administrativas... 1970/01/01 Em elaboração
248 3187497/2019 APM da Etec de Cerquilho Ampliar e fortalecer as atividades administrativas... 1970/01/01 Em elaboração
222 3180117/2019 APM da Etec de Cotia Ampliar e fortalecer as atividades administrativas... 1970/01/01 Em elaboração
77 3020170/2019 APM da Etec Professor José Sant'Ana de Castro Ampliar e fortalecer as atividades administrativas... 1970/01/01 Em elaboração
181 3155420/2019 APM da Etec de Cubatão Ampliar e fortalecer as atividades administrativas... 1970/01/01 Em elaboração
241 3153131/2019 APM da Etec de Embu Ampliar e fortalecer as atividades administrativas... 1970/01/01 Em elaboração
47 1418201/2020 APM da Etec Doutor Carolino da Motta e Silva Ampliar e fortalecer as atividades administrativas... 1970/01/01 Em elaboração
138 3218647/2019 APM da Etec Professor Armando José Farinazzo Ampliar e fortalecer as atividades administrativas... 1970/01/01 Em elaboração
46 50481/2020 APM da Etec Professor Carmelino Correa Júnior Ampliar e fortalecer as atividades administrativas... 1970/01/01 Em elaboração
78 3132940/2019 APM da Etec Doutor Júlio Cardoso Ampliar e fortalecer as atividades administrativas... 1970/01/01 Em elaboração
88 3193022/2019 APM da Etec Monsenhor Antônio Magliano Ampliar e fortalecer as atividades administrativas... 1970/01/01 Em elaboração
63 211177/2020 APM da Etec Engenheiro Herval Bellusci Ampliar e fortalecer as atividades administrativas... 1970/01/01 Em elaboração
215 3138323/2019 APM da Etec Arnaldo Pereira Cheregatti Ampliar e fortalecer as atividades administrativas... 1970/01/01 Em elaboração
6 3090051/2019 APM da Etec Polivalente de Americana Ampliar e fortalecer as atividades administrativas... 1970/01/01 Em elaboração
67 3182275/2019 APM da Etec João Belarmino Ampliar e fortalecer as atividades administrativas... 1970/01/01 Em elaboração
281 1418380/2020 APM da Etec de Apiaí Ampliar e fortalecer as atividades administrativas... 1970/01/01 Em elaboração
165 3658033/2019 APM da Etec de Araçatuba Ampliar e fortalecer as atividades administrativas... 1970/01/01 Em elaboração
29 3076315/2019 APM da Etec Professora Anna de Oliveira Ferraz Ampliar e fortalecer as atividades administrativas... 1970/01/01 Em elaboração
24 3025615/2019 APM da Etec Prefeito Alberto Feres Ampliar e fortalecer as atividades administrativas... 1970/01/01 Em elaboração
274 3123439/2019 APM da Etec Professora Luiza Maria Machado Ampliar e fortalecer as atividades administrativas... 1970/01/01 Em elaboração
95 3089049/2019 APM da Etec Pedro D'Arcádia Neto Ampliar e fortalecer as atividades administrativas... 1970/01/01 Em elaboração
147 3154284/2019 APM da Etec Professor Carmine Biagio Tundsi Ampliar e fortalecer as atividades administrativas... 1970/01/01 Em elaboração
145 3145203/2019 APM da Etec Professor Fausto Mazzola Ampliar e fortalecer as atividades administrativas... 1970/01/01 Em elaboração
40 3189937/2019 APM da Etec Comendador João Rays Ampliar e fortalecer as atividades administrativas... 1970/01/01 Em elaboração
108 3148733/2019 APM da Etec Coronel Raphael Brandão Ampliar e fortalecer as atividades administrativas... 1970/01/01 Em elaboração
30 3249537/2019 APM da Etec Antonio de Pádua Cardoso Ampliar e fortalecer as atividades administrativas... 1970/01/01 Em elaboração
135 3153233/2019 APM da Etec Rodrigues de Abreu Ampliar e fortalecer as atividades administrativas... 1970/01/01 Em elaboração
123 3133628/2019 APM da Etec Doutor Renato Cordeiro Ampliar e fortalecer as atividades administrativas... 1970/01/01 Em elaboração
51 3086722/2019 APM da Etec Doutor Domingos Minicucci Filho Ampliar e fortalecer as atividades administrativas... 1970/01/01 Em elaboração
82 3199901/2019 APM da Etec Machado de Assis Ampliar e fortalecer as atividades administrativas... 1970/01/01 Em elaboração
44 3144882/2019 APM da Etec Professor Marcos Uchôas dos Santos Penchel Ampliar e fortalecer as atividades administrativas... 1970/01/01 Em elaboração
55 3183481/2019 APM da Etec Professor Eudécio Luiz Vicente Ampliar e fortalecer as atividades administrativas... 1970/01/01 Em elaboração
Unidade Processo Instituição/Empresa Objeto Início Término Link
136.00009343/2023-17 Cooperativa Escola dos Alunos da Etec Antônio Junqueira Veiga - Igarapava Ampliar a vivência de práticas produtivas e gest... 1970/01/01 16/08/2023 16/08/2026
63 480125/2019 Cooperativa-escola dos alunos da Etec Engenheiro Herval Bellusci Ampliar a vivência de práticas produtivas e gest... 1970/01/01 18/04/2024 18/04/2024
73 476950/2019 Cooperativa-escola dos alunos da Etec Doutor José Luiz Viana Coutinho Ampliar a vivência de práticas produtivas e gest... 2020/12/03 03/12/2020 02/12/2023
39 475663/2019 Cooperativa-escola dos alunos da Etec Augusto Tortorelo Araújo Ampliar a vivência de práticas produtivas e gest... 1970/01/01 14/12/2020 13/12/2023
57 662311/2019 Cooperativa-escola dos alunos da Etec Prof. Francisco dos Santos Ampliar a vivência de práticas produtivas e gest... 1970/01/01 14/12/2020 13/12/2023
93 414821/2019 Cooperativa-escola dos alunos da Etec Dep. Paulo Ornellas Carvalho de Barros Ampliar a vivência de práticas produtivas e gest... 2021/12/03 03/12/2021 03/12/2024
102 643890/2019 Cooperativa-escola dos alunos da Etec Dona Sebastiana de Barros Ampliar a vivência de práticas produtivas e gest... 1970/01/01 29/12/2021 28/12/2024
38 472462/2019 Cooperativa-escola dos alunos da Etec Astor de Mattos Carvalho Ampliar a vivência de práticas produtivas e gest... 1970/01/01 30/12/2021 29/12/2024
136.00014992/2023-30 Cooperativa-escola dos alunos da Etec Dr. Carolino da Motta e Silva - Espírito Santo do Pinhal Ampliar a vivência de práticas produtivas e gest... 2022/10/11 11/10/2022 10/10/2025
136.00015026/2023-30 Cooperativa Escola dos Alunos da Etec Helcy Moreira Martins Aguiar - Cafelândia Ampliar a vivência de práticas produtivas e gest... 1970/01/01 18/10/2022 17/10/2025
395596/2019 Cooperativa Escola dos Alunos da Etec Dario Pacheco Pedroso - Taquarivaí Ampliar a vivência de práticas produtivas e gest... 1970/01/01 19/10/2022 18/10/2025
136.00015047/2023-55 Cooperativa Escola da Etec Professora Carmelina Barbosa - Dracena Ampliar a vivência de práticas produtivas e gest... 1970/01/01 20/10/2022 19/10/2025
136.00015057/2023-91 Cooperativa Escola da Etec Prof. Doutor Antonio Eufrásio Toledo - Presidente Prudente. Ampliar a vivência de práticas produtivas e gest... 1970/01/01 24/10/2022 23/10/2025
136.00015070/2023-40 Cooperativa Escola da Etec Orlando Quagliato - Santa Cruz do Rio Pardo Ampliar a vivência de práticas produtivas e gest... 1970/01/01 27/10/2022 25/10/2025
136.00015090/2023-11 Cooperativa Escola da Etec Engenheiro Agrônomo Narciso de Medeiros - Iguape Ampliar a vivência de práticas produtivas e gest... 2022/11/03 03/11/2022 02/11/2025
136.00015095/2023-43 Cooperativa Escola da Etec Professor Edson Galvão - Itapetininga Ampliar a vivência de práticas produtivas e gest... 2022/11/03 03/11/2022 02/11/2025
136.00015103/2023-51 Cooperativa Escola da Etec Cônego José Bento - Jacareí Ampliar a vivência de práticas produtivas e gest... 2022/11/08 08/11/2022 08/11/2025
136.00015258/2023-98 Cooperativa Escola da Etec Paulo Guerreiro Franco - Vera Cruz Ampliar a vivência de práticas produtivas e gest... 1970/01/01 23/11/2022 23/11/2025
136.00015285/2023-61 Cooperativa Escola dos Alunos da Etec Professor Matheus Leite de Abreu - Mirassol Ampliar a vivência de práticas produtivas e gest... 2022/12/07 07/12/2022 07/12/2025
Unidade Processo Instituição/Empresa Objeto Início Término Link
CEETEPS 136.00006133/2023-77 Savegnago Supermercados Ltda Realização do Programa AMS Centro Paula Souza, p... 1970/01/01 14/09/2023 14/09/2028
CEETEPS 136.00000053/2023-16 Tekno S.A. Indústria e Comércio Realização do Programa AMS Centro Paula Souza, p... 2023/08/02 02/08/2023 02/08/2025
CEETEPS 136.00011950/2023-47 Supersoft - Sistemas Ltda Programa AMS Centro Paula Souza, possibilitando ao... 1970/01/01 17/05/2023 17/05/2028
CEETEPS 136.00011957/2023-69 Oxiquímica Agrociência Ltda Realização do Programa AMS Centro Paula Souza - ... 1970/01/01 24/04/2023 24/04/2028
CEETEPS 136.00000562/2023-31 Uzinas Chimicas Brasileiras S.A. Realização do Programa AMS Centro Paula Souza - ... 1970/01/01 18/04/2024 18/04/2024
CEETEPS 029/2013 (PC-1270/16) Fundação de Desenvolvimento da Educação - FNDE Programa Nacional de Acesso ao Ensino Técnico e E... 2013/09/05 05/09/2013 18/04/2024
CEETEPS - M-Tec 1886803/2018 (SEE nº 1614305/2018) Seretaria da Educação - SEE - Mtec Oferta de Ensino Médio com habilitação ou Quali... 1970/01/01 30/01/2019 29/01/2024
CEETEPS - ETIM 1617721/2018 (SEE nº 1561624/2018) Secretaria da Educação - SEE - ETIM Oferta de Educação Profissional Técnica articul... 1970/01/01 15/03/2019 14/03/2024
Etec e Fatec Sebrae SPDoc 1617246/2018 Serviço de Apoio às Micros e Pequenas Empresas do Estado de SP - SEBRAE Manutenção das atividades das Etec Sebrae, Fatec... 1970/01/01 21/05/2019 21/05/2024
CPS ST-PRC-2022/00049 Secretaria de Turismo e Viagem - SETUR Cooperação recíproca em atividades de ensino, p... 1970/01/01 24/05/2022 24/05/2024
Fatec Botucatu 2575245/2019 Faculdade de Medicina de Botucatu e Hospital das Clínicas da Faculdade de Medicina de Botucatu Programa de Cooperação Acadêmica Fatec Botucatu... 1970/01/01 19/05/2020 18/05/2025
Etec Martinho Di Ciero 726077/2020 Senior Sistemas - Mega Realização do Programa P-Tech Centro Paula Souza... 1970/01/01 28/09/2020 28/09/2025
CPS CEETEPS-PRC-2021/08889 TERLOC - Terminal Logístico Cesari ltda. Programa de Articulação da Formação Profission... 2022/03/10 10/03/2022 10/03/2027
CPS 136.00018693/2023-74 Fermentec Tecnologias em açúcar e álcool Ltda Programa de Articulação da Formação Profission... 1970/01/01 28/04/2022 28/04/2027
CPS CEETEPS-PRC-2021/08714 Fulltime - Gestora de Dados Ltda. Programa de Articulação da Formação Profission... 2022/05/04 04/05/2022 04/05/2027
CPS SPDoc 1809841/2019 UNIVESP Implantação de vagas para cursos de educação s... 1970/01/01 26/05/2022 26/05/2027
CPS 136.00012017/2023-97 SCAFFOLD EDUCATION LTDA Programa de Articulação da Formação Profission... 2022/06/02 02/06/2022 02/06/2027
CEETEPS CEETEPS-PRC-20221/08934 Autoridade portuária de Santos S.A. Realização do Programa AMS Centro Paula Souza no... 1970/01/01 21/06/2022 21/06/2027
CPS CEETEPS-PRC-2022/24172 Prefeitura de Queiroz e a Clealco Acúcar e Álcool S/A Implantação de quatro cursos de Qualificação P... 1970/01/01 28/06/2022 28/12/2024
CPS 136.00011962/2023-71 TNT Educacional e Consultoria Ltda Realização do programa AMS Centro Paula Souza, p... 2022/09/06 06/09/2022 06/09/2027
CPS 136.00005589/2023-10 One7 Securitizadora de Créditos Comerciais S/A Realização do Programa AMS Centro Paula Souza e ... 2023/01/04 04/01/2023 04/01/2028
CPS 136.00005608/2023-16 Forplant Agrícola Ltda Realização do Programa AMS Centro Paula Souza e ... 2023/01/06 06/01/2023 06/01/2028
CPS 136.00005645/2023-16 Portage Confecções e Comércio Ltda. Realização do Programa AMS Centro Paula Souza e ... 1970/01/01 13/01/2023 13/01/2028
CPS 136.00005668/2023-21 Itix Serviços de Tecnologia da Informação Ltda Realização do Programa AMS Centro Paula Souza e ... 1970/01/01 26/01/2023 26/01/2028
CPS 136.00005732/2023-73 Atual & Original Araçatuba Serviços Informática Ltda Realização do Programa AMS Centro Paula Souza e ... 2023/02/09 09/02/2023 09/02/2028
CPS 136.00005692/2023-60 Tecsoil Automação e Sistemas S.A Realização do Programa AMS Centro Paula Souza e ... 1970/01/01 13/02/2023 13/02/2028
CPS 136.00005710/2023-11 Elétrica Nicolucci Ltda Realização do Programa AMS Centro Paula Souza e ... 1970/01/01 16/02/2023 16/02/2028
CPS 136.00005754/2023-33 Multimedia Arts Ltda Realização do Programa AMS Centro Paula Souza e ... 2023/03/01 01/03/2023 01/03/2028
CPS 136.00005940/2023-72 FMX Soluções em Tecnologia Ltda Realização do Programa AMS Centro Paula Souza e ... 1970/01/01 20/03/2023 20/03/2028
CPS 136.00005580/2023-17 Devcoffe Sistema de Gestão Integrada Ltda Realização do Programa AMS Centro Paula Souza e ... 2024/01/04 04/01/2024 04/01/2028
Unidade Processo Instituição/Empresa Objeto Início Término Link
CEETEPS 136.00000795/2023-33 Mitsubishi Electric do Brasil Comércio e Serviços Ltda Cessão gratuita, sem quaisquer ônus ou taxas, em... 1970/01/01 29/08/2022 28/08/2023
CEETEPS 136.00004157/2023-91 Município de SÃO VICENTE/SP Continuidade da cessão de funcionários, por part... 2023/03/01 01/03/2023 01/03/2028
Unidade Processo Instituição/Empresa Objeto Início Término Link
CEETEPS 6017/2017 Fundação de Desenvolvimento da Educação - FNDE Programa Mediotec das Escolas Técnicas Estaduais ... 1970/01/01 24/11/2017 Enquanto recurso em conta
CEETEPS 323052/2019 Fundo Nacional de Desenvolvimento da Educação - FNDE Execução de vagas de Cursos de Qualificação Pr... 2018/04/06 06/04/2018 Enquanto recurso em conta
CEETEPS 136.00022058/2023-91 Fundo Nacional de Desenvolvimento da Educação - FNDE Adquirir equipamento de TIC (REPASSE - R$194.040,0... 1970/01/01 29/03/2022 09/03/2024
CEETEPS 136.00022089/2023-42 Fundo Nacional de Desenvolvimento da Educação - FNDE Adquirir equipamentos para laboratórios (Repasse ... 1970/01/01 29/03/2022 25/03/2024
Unidade Processo Instituição/Empresa Objeto Início Término Link
Etec de Cravinhos 136.00006307/2023-00 Prefeitura de Cravinhos Implantação da ETEC no Município, visando ao de... 2022/07/01 01/07/2022 01/07/2027
Etec de Ubatuba 136.00006215/2023-11 Prefeitura de Ubatuba Implantação da ETEC no Município, visando ao de... 2022/07/01 01/07/2022 01/07/2027
Etec de Sumaré 136.00004861/2023-44 Prefeitura de Sumaré Implantação da ETEC no Município, visando ao de... 2022/07/01 01/07/2022 01/07/2027
Etec de Jaguariúna CEETEPS-PRC-2021/10845 Prefeitura de Jaguariúna Implantação da ETEC no Município, visando ao de... 2022/07/01 01/07/2022 01/07/2027
Etec Adolpho Berezin - 107 2322611/2019 Prefeitura Municipal de Mongaguá Implantação da ETEC no Município, visando ao de... 2020/08/03 03/08/2020 02/08/2025
Etec de Boituva 136.00006332/2023-85 Prefeitura de Boituva Implantação da ETEC no Município, visando ao de... 1970/01/01 22/12/2022 22/12/2027
Etec de São João da Boa Vista 136.00006202/2023-42 Prefeitura de São João da Boa Vista Implantação da ETEC no Município, visando ao de... 1970/01/01 29/12/2022 29/12/2027
Etec de Guaíra 136.00006241/2023-40 Prefeitura de Guaíra Implantação da ETEC no Município, visando ao de... 1970/01/01 29/12/2022 29/12/2027
Unidade Processo Instituição/Empresa Objeto Início Término Link
Fatec de Suzano 136.00003160/2023-98 Município de Suzano Implantação de Fatec... 1970/01/01 20/09/2023 20/09/2028
Fatec Porto Ferreira 136.00005588/2023-75 Município de Porto Ferreira Implantação de Fatec... 2023/04/05 05/04/2023 05/04/2028
Fatec Assis 1366807/2018 Univ. Est. Júlio M. Filho - Unesp Campos Assis Utilização de salas das dependências da UNESP A... 1970/01/01 30/10/2018 29/10/2023
Fatec de Matão 1760746/2018 Prefeitura de Matão Instalação de Fatec... 2019/03/11 11/03/2019 09/03/2024
Fatec de Santana de Parnaíba 1446899/2019 Prefeitura de Santana de Parnaíba Instalação de Fatec... 1970/01/01 20/07/2020 19/07/2025
Fatec 136.00004263/2023-75 Prefeitura de Barretos Instalação de Fatec... 2021/08/01 01/08/2021 31/07/2026
Fatec de Itapevi 835860/2020 Prefeitura de Itapevi Instalação de Fatec. (Repasse - R$ 5.000.000,00)... 2022/02/03 03/02/2022 03/07/2025
Fatec de Votorantim 136.00003077/2023-19 Prefeitura de Votorantim Implantação de Fatec... 2022/07/01 01/07/2022 01/07/2027
Unidade Processo Instituição/Empresa Objeto Início Término Link
Etec Palmital 136.00004622/2023-94 Município de Palmital Manutenção de Etec... 1970/01/01 20/09/2023 20/09/2028
Fatec de São Roque 136.00006668/2023-80 Município de São Roque Manutenção de Fatec... 1970/01/01 13/09/2023 13/09/2028
Fatec Setãozinho 136.00000953/2023-55 Município de Sertãozinho Manutenção de Fatec... 2023/08/07 07/08/2023 07/08/2028
Fatec Ogari de Castro Pacheco (278) 428168/2019 Prefeitura de itapira Manutenção física da Fatec... 2020/12/09 09/12/2020 08/12/2025
Etec de Vargem Grande do Sul CEETEPS-PRC – 2021/09989 Municipio de Vargem Grande do Sul Manutenção física da Etec... 1970/01/01 18/05/2022 18/05/2027
Etec de Cotia CEETEPS-PRC 2021/06249 Municipio de Cotia Manutenção física da Etec... 2022/05/04 04/05/2022 04/05/2027
Etec de Suzano CEETEPS-PRC-2021/12731 Município de Suzano Transferência de recursos financeiros disponibili... 2022/04/01 01/04/2022 30/04/2024
Etec de Registro CEETEPS-PRC-2021/08720 Município de Registro Locação do imóvel, manutenção física e a seg... 2022/04/01 01/04/2022 31/03/2025
Etec Cidade do Livro PRC-2021/03745 Município de Lençóis Paulista Manutenção física da Etec... 2022/03/10 10/03/2022 09/03/2027
Etec de Ibaté 544161/2019 Município de Ibaté Manutenção da Etec... 2022/02/12 12/02/2022 11/02/2027
Etec de Monte Mor (198) 400163/2020 Prefeitura de Monte Mor Manutenção física da Etec... 1970/01/01 17/12/2020 16/12/2025
Fatec Cotia 1239781/2019 Prefeitura de Cotia Manutenção física da Fatec... 2020/07/10 10/07/2020 09/07/2025
Fatec Padre Danilo José de Oliveira Ohl (209) 809618/2020 Prefeitura de Barueri Manutenção física da Fatec... 2020/04/01 01/04/2020 31/03/2025
Etec de Praia Grande 1473080/2019 Prefeitura de Praia Grande Manutenção física da Etec... 1970/01/01 23/01/2020 22/01/2025
Etec Sebrae 1617246/2018 Sebrae SP - Serviço de Apoio às Micro Pequenas Empresas Manutenção física da Etec e Fatec... 1970/01/01 21/05/2019 20/05/2024
Etec de Itararé 034/2016 1018756/2018 Prefeitura de Itararé Manutenção física da Etec... 2019/03/11 11/03/2019 09/03/2024
Etec José Ignácio Azevedo Filho (233) CEETEPS-PRC – 2021/00576 Município de Ituverava Manutenção física da Etec... 1970/01/01 30/06/2022 29/06/2027
Etec Profº Jadyr Salles PRC-2021/00634 Municipio de Porto Ferreira Manutenção física da Etec... 1970/01/01 31/05/2022 30/05/2027
Fatec Profº Wilson Roberto Ribeiro de Camargo PRC-2021/09229 Municipio de Tatuí Manutenção física da Fatec... 2022/06/01 01/06/2022 01/06/2027
Etec de São Sebastião PRC-2021/09006 Municipio de Estância Bauneária de São Sebastião Manutenção física da Etec... 2022/07/01 01/07/2022 01/07/2027
Escola Técnica Estadual GINO REZAGHI 136.00004134/2023-87 Município de CAJAMAR/SP Manutenção física da Etec... 2023/03/07 07/03/2023 07/03/2028
Fatec Deputado Roque Trevisan de Piracicaba 136.00002404/2023-15 MUNICÍPIO DE PIRACICABA Manutençao fisica de Fatec... 2023/02/02 02/02/2023 02/02/2028
ETEC “DEPUTADO ARY DE CAMARGO” DE PIRACICABA 136.00004775/2023-31 MUNICÍPIO DE PIRACICABA Manutenção física da Etec... 2023/02/02 02/02/2023 02/02/2028
FATEC DE ITAQUAQUECETUBA 136.00002090/2023-51 Municipio de Itaquaquecetuba Manutençao fisica de Fatec... 2023/01/06 06/01/2023 06/01/2028
ETEC GUSTAVO TEIXEIRA 136.00004178/2023-15 Município de São Pedro Manutenção física da Etec... 1970/01/01 29/12/2022 29/12/2027
ETEC "ARNALDO PEREIRA CHEREGATTI" 136.00004592/2023-16 Município de Aguaí Manutenção física da Etec... 1970/01/01 29/12/2022 29/12/2027
Fatec Dom Amaury Castanho PRC-2021/10118 Municipio de Itú Manutenção física da Fatec... 2022/07/01 01/07/2022 01/07/2027
Etec de Cerquilho PRC-2021/08926 Municipio de Cerquilho Manutenção física da Etec... 2022/07/01 01/07/2022 01/07/2027
Fatec de São Sebastião PRC-2021/09100 Municipio de Estância Bauneária de São Sebastião Manutenção física da Fatec... 2022/07/01 01/07/2022 01/07/2027
Etec Campo Limpo Paulista 136.00004632/2023-20 Município de Campo Limpo Paulista Manutenção física da Etec... 2022/07/01 01/07/2022 01/07/2027
Etec de Piedade 136.00004754/2023-16 Município de Piedade Manutenção física da Etec... 2022/07/01 01/07/2022 01/07/2027
Etec de Itaquaquecetuba PRC-2022/08994 Município de Itaquaquecetuba Manutenção física da Etec... 2022/07/01 01/07/2022 01/07/2027
Etec Bartolomeu Bueno da Silva 136.00004823/2023-91 Município de Santana de Parnaíba Manutenção física da Etec... 2022/07/01 01/07/2022 01/07/2027
Fatec Antonio Brandrilla 1545043/2020 Município de Araras Manutenção física da Fatec... 2022/07/01 01/07/2022 01/07/2027
Etec "Vereador e Vice prefeito Sergio da Fonseca" 136.00004710/2023-96 Município de Ibitinga Manutenção física da Etec... 2022/07/01 01/07/2022 01/07/2027
Fatec Itatiba - Maria Eunice Amadeo de Almeida 136.00004190/2023-11 Município de Itatiba Manutenção física da Fatec... 2022/07/01 01/07/2022 01/07/2027
(Etec) “de Cubatão” 136.00004106/2023-60 Município de CUBATÃO/SP Manutenção física da Etec... 1970/01/01 20/03/2023 20/03/2028
Processo Partícipe/Escola Início Término Link
136.00004965/2023-59 Município de São Sebastião 1970/01/01 28/07/2023 28/12/2024
136.00006582/2023-15 Município de Mineiros do Tietê 1970/01/01 21/07/2023 21/01/2025
136.00002919/2023-15 Município de São Vicente 1970/01/01 18/04/2024 18/04/2024
136.00004871/2023-80 Município de Junqueirópolis 2023/07/03 03/07/2023 03/01/2025
136.00005849/2023-57 Município de Cerquilho 1970/01/01 28/07/2023 28/07/2024
136.00002513/2023-32 Município de Santa Mercedes 1970/01/01 25/07/2023 25/01/2025
136.00004909/2023-14 Município de Ribeira 1970/01/01 20/07/2023 20/07/2025
136.00000979/2023-01 Município de AGUDOS 2023/06/07 07/06/2023 07/06/2025
0005/2017 Cunha / EMEF Prof. Benedito Aguiar Santana 1970/01/01 21/06/2017 20/12/2023
0032/2016 Guara / EMEB Eng. Agrônomo Urbano de Andrade Junqueira 2016/12/07 07/12/2016 06/12/2023
136.00000469/2023-26 Conchas / EM Prefeito Reineiro Donato Pastina 1970/01/01 14/09/2021 14/12/2023
136.00000583/2023-56 Sales / Escola Municipal Clorinda Morano Carvalho 2021/09/09 09/09/2021 09/07/2024
CEETEPS–PRC–2021/00350 Dois Corregos / EMEF Francisco Simões 2024/01/10 10/01/2024
CEETEPS-PRC-2021/01036 Lagoinha / EMEF Prof. Alceu Coelho 1970/01/01 19/08/2021 19/06/2024
CEETEPS–PRC–2021/00372 Guaicara / EMEF Prof. Henrique Unger 2021/08/05 05/08/2021 05/07/2024
136.00004406/2023-49 Narandiba / Escola Municipal Edson de Oliveira Garcia 2021/08/03 03/08/2021 01/01/2025
36.00000009/2023-06 Artur Nogueira / EMEF Francisco Cardona (a partir 1º/2022) 1970/01/01 28/12/2020 28/12/2023
1794793/2020 Bebedouro / FUPAB - Fundação de Pesquisas Agroindustriais de Bebedouro 2020/12/10 10/12/2020 10/12/2025
250286/2020 Tupi Paulista / Penitenciária de Tupi Paulista (Feminina) 1970/01/01 29/10/2020 29/10/2023
1932599/2018 Agudos / Prédio UNIVESP e SENAI (a partir 2º sem./2021) 1970/01/01 23/01/2020 07/01/2024
199823/2019 Praia Grande / 1970/01/01 23/01/2020 21/01/2025
136.00001926/2023-08 Piratininga / EMEF Profª Jacyra Motta Mendes 2022/10/01 01/10/2022 07/09/2024
136.00008702/2023-19 Tabatinga / Centro de Formação Profissional 2022/01/10 10/01/2022 10/07/2024
136.00003926/2023-34 Cordeiropolis / EMEF Maria Aparecida Pagoto de Moraes 2022/01/10 10/01/2022 10/01/2025
136.00004751/2023-82 Morro Agudo / EM Profa Mª Amália Volpon de Figueiredo 2022/01/10 10/01/2022 09/07/2024
136.00006533/2023-82 Martinopolis / EM Francisco Marques Bonilha 2022/01/10 10/01/2022 10/01/2025
136.00002598/2023-59 Santo Anastacio / EMEF Enrico Bertoni 2022/01/10 10/01/2022 10/01/2025
136.00007890/2023-68 Pirapora do Bom Jesus / Núcleo de Ensino Sociocultural Irmã Mª Nila Pontes 2022/01/10 10/01/2022 10/01/2025
136.00006348/2023-98 Charqueada / NAPE Núcleo Apoio Pedag. Profa. Rafaela de Cássia R. Abdalla 2022/01/10 10/01/2022 10/01/2025
136.00007490/2023-52 Porangaba / EMEF Joaquim Francisco de Miranda 2022/01/10 10/01/2022 10/07/2024
136.00004411/2023-51 Sao Luiz do Paraitinga / EMEF Coronel Domingues de Castro 2022/01/10 10/01/2022 10/01/2025
136.00007087/2023-23 Parapua / EMEF Profª Zizi Pereira de Souza 2022/01/03 03/01/2022 03/01/2025
136.00028312/2023-65 Colina / EMEF Cel. José Venâncio Dias 2021/12/02 02/12/2021 02/07/2024
136.00012306/2023-96 Aracoiaba da Serra / C.I.E. Professor Osmar Giacomelli 1970/01/01 22/09/2021 22/05/2024
136.00000839/2023-25 Aracariguama / EMEF Alberto Fernandes de Araújo 1970/01/01 14/09/2021 14/07/2024
136.00032072/2023-01 Fartura / EMEF João Batista de Oliveira 1970/01/01 14/09/2021 14/07/2024
136.00014599/2023-46 Cesario Lange / EMEF Prof. Francisco Mendes de Almeida (15) 3246-2148 1970/01/01 14/09/2021 14/07/2024
136.00000486/2023-63 Ipero / EM Profa. Henory de Campos Goes 1970/01/01 14/09/2021 31/12/2023
136.00005660/2023-64 Barrinha/EMEF Armínio Giraldi 1970/01/01 31/01/2022 31/01/2025
136.00002612/2023-14 Santo Antônio de Posse/EMEF Mário Bianchi 1970/01/01 31/01/2022 31/12/2024
136.00005759/2023-66 Braganca Paulista / Pólo Univ. Aberta do Brasil UAB - Brag. Paulista 1970/01/01 21/01/2022 21/01/2025
136.00000001/2023-31 Estrela D'oeste / Núcleo Mun.de Cap. Profis. Profª Cora Lazzarini Martins 1970/01/01 21/01/2022 21/12/2023
136.00000182/2023-04 Miracatu / EMEF Diogo Ribeiro (13) 3847-7000 1970/01/01 21/01/2022 21/12/2023
136.00004392/2023-63 Morungaba / EMEF Prof. Irineu Tobias 1970/01/01 21/01/2022 21/12/2023
CEETEPS-PRC-2021/08701 Guara / EMEB Eng. Agrônomo Urbano de Andrade Junqueira 1970/01/01 21/01/2022 21/07/2024
136.00002742/2023-57 Salto de Pirapora / EMEF Vereadora Célia Dias Batista dos Santos 1970/01/01 21/01/2022 21/12/2024
136.00005587/2023-21 Bariri/EMEF Prof Eurico Acçolini 1970/01/01 18/04/2024 18/04/2024
136.00002865/2023-98 Taruma / Polo Universitário Odila Guedes Ribeiro 1970/01/01 16/01/2022 16/01/2027
136.00001748/2023-15 Chavantes / EMEF Olegário Bueno 1970/01/01 16/01/2022 16/01/2025
136.00005772/2023-15 Cajobi / EMEF Dr. Adhemaro Godoy 1970/01/01 16/01/2022 15/07/2024
136.00002558/2023-15 Avanhandava / EMEF Prof. Victor Sansoni (18) 3651-1146 1970/01/01 16/01/2022 16/01/2025
136.00007280/2023-64 Pilar do Sul / EM Profª Hilda Holtz Carvalho 1970/01/01 16/01/2022 16/01/2025
136.00005736/2023-51 Bernardino de Campos / Centro Educacional Municipal (antiga EMEF) 1970/01/01 18/04/2024 01/12/2025
136.00005443/2023-74 Ilhabela/Pólo de Educ. Integrada da Barra Velha 1970/01/01 18/04/2024 18/04/2024
136.00004158/2023-36 Alvares Machado / EMEIF Álvares Machado 2022/12/01 01/12/2022 01/11/2025
136.00006111/2023-15 Presidente Bernardes / EMEF Sylas Gedeão Coutinho 2022/12/01 01/12/2022 01/12/2025
136.00003886/2023-21 Jacupiranga / EMEF Carlos Alberto Vigneron 2022/12/01 01/12/2022 01/12/2025
136.00000954/2023-08 Município de Cajati/EM Profª Maria da Conceição Rodrigues de Alcantara 1970/01/01 30/06/2022 30/12/2023
136.00009675/2023-00 Município de Itaberá/Oficina Pedagógica Univesp 1970/01/01 30/06/2022 30/12/2023
136.00012321/2023-34 Município de Paraibuna/EMEF Irmã Irene Alves Lopes - Irmã Zoé 1970/01/01 30/06/2022 30/12/2023
136.00004955/2023-13 São Miguel Arcanjo/EMEIF Profº Arani José da Silva 1970/01/01 28/04/2022 28/04/2025
136.00007033/2023-68 Nova Granada/EMEF Madalena de Almeida Cais 2022/04/12 12/04/2022 31/10/2023
136.00000374/2023-11 Borborema/EMEIF Prof.ª Ana Rosa 1970/01/01 14/03/2022 14/07/2024
136.00005265/2023-81 Descalvado /EM Professora Antônia Tenan Schlittler 2022/03/07 07/03/2022 07/01/2025
136.00006494/2023-13 Itaporanga/E. M. Dom Athanázio Merkle 1970/01/01 25/02/2022 25/08/2024
136.00003632/2023-11 Itupeva/EMEF Victória Cômodo Raymundo Fernandes 1970/01/01 25/02/2022 25/02/2025
136.00001779/2023-68 Iepê/EMEF João Antonio Rodrigues 1970/01/01 24/02/2022 24/08/2024
136.00007336/2023-81 Piquete/EMEF Antônio João 1970/01/01 24/02/2022 24/12/2024
136.00005331/2023-13 Várzea Paulista/EMEF Edite Schneider 1970/01/01 24/02/2022 24/12/2024
136.00004639/2023-41 Anhembi/EMEF Governador Mário Covas 2022/02/08 08/02/2022 08/02/2025
136.00004660/2023-47 Areiópolis/EMEF José Lourenço Blanco 2022/02/08 08/02/2022 08/02/2025
136.00005992/2023-49 Guaraci/EMEB Mércia Júlia Barbosa Velho 1970/01/01 22/03/2022 22/12/2024
136.00000002/2023-86 Município de Cajuru / EMEB André Ruggeri 1970/01/01 30/06/2022 31/12/2023
136.00002748/2023-24 Município de Cosmópolis / EMEB Paulo Freire 1970/01/01 30/06/2022 30/06/2024
136.00001346/2023-11 Município de Guaira / EMEF Maria Auxiliadora Lelis Alves 1970/01/01 30/06/2022 30/06/2027
136.00000507/2023-41 Município de Pinhalzinho / EMEF Profª Ana Gusson Franco 1970/01/01 30/06/2022 31/12/2023
136.00001838/2023-06 Município de Rincão / EMEF Dr. José Servidone 1970/01/01 30/06/2022 30/12/2024
136.00000134/2023-16 Município de Mendonça/ EMEIF Antonio Alves da Costa 1970/01/01 30/06/2022 31/12/2023
136.00000516/2023-31 Município de Promissão/ EMEF Colégio Xavier 1970/01/01 30/06/2022 30/12/2024
136.00003334/2023-12 Município de Guararapes/ EM Profº Celso Geraldo Queiroz 1970/01/01 30/06/2022 30/06/2027
136.00000041/2023-83 Município de João Ramalho/ EMEF Profº Geraldino de Moraes 1970/01/01 30/06/2022 31/12/2023
136.00004284/2023-91 Município de Guararema/ Escola Profissionalizante Prefeito Sebastião Alvino de Souza 1970/01/01 18/04/2024 18/04/2024
136.00011365/2023-47 Município de Juquitiba/ EM Raízes do Pau Brasil 1970/01/01 30/06/2022 30/06/2024
136.00000188/2023-73 Município de Tapiratiba/ EMEB Monsenhor João Liz do Prado 1970/01/01 30/06/2022 31/12/2023
136.00001036/2023-98 Município de Taciba/ EMEF Gentila Luiza Damasceno 1970/01/01 30/06/2022 31/12/2023
136.00000556/2023-83 Município de Angatuba/ EMEF Dr. Fortunato de Camargo 1970/01/01 18/04/2024 18/04/2024
136.00000716/2023-94 Município de Cabreúva/ EMEB Anízio da Silveira 1970/01/01 30/06/2022 31/12/2023
136.00000152/2023-90 Município de Laranjal Paulista/Escola Municipal João Salto 1970/01/01 30/06/2022 30/12/2023
136.00002759/2023-12 Município de Neves Paulista/EMEF Capitão Neves 1970/01/01 30/06/2022 30/12/2023
136.00001022/2023-74 Município de Campina do Monte Alegre/EME Profª Alzira de Oliveira Garcia 1970/01/01 30/06/2022 30/12/2023
136.00001624/2023-21 Município de Ibirarema/EM Profª Augusta Novaes Coronado 1970/01/01 30/06/2022 30/12/2023
136.00009705/2023-70 Município de Jaguariúna/Novo prédio da futura Etec de Jaguariuna 1970/01/01 30/06/2022 30/06/2024
136.00000462/2023-12 Município de Auriflama/EMEF Dona Conceição de Oliveira Moreira 1970/01/01 23/12/2022 23/12/2023
136.00004694/2023-31 Município de Bálsamo/EMEF Modesto José Moreira 1970/01/01 22/12/2022 22/12/2024
136.00005084/2023-55 Município de Barão de Antonina/EMEF Profa. Alice Moraes de Oliveira 1970/01/01 22/12/2022 22/06/2024
136.00012318/2023-11 Município de Barbosa/EMEF Gabriel José Martins 1970/01/01 22/12/2022 22/06/2024
136.00003802/2023-59 Município de Conchal/EMEF Alonso Ferreira de Camargo 1970/01/01 22/12/2022 22/12/2024
136.00000126/2023-61 Município de Estância Turística de Salto/CEMUS V Luiz Rodrigues de Almeida 1970/01/01 22/12/2022 22/06/2024
136.00014589/2023-19 Município de Capela do Alto/EMEF Marcílio Leite de Almeida 1970/01/01 14/12/2022 14/06/2024
136.00000945/2023-17 Município de Bragança Paulista/Fatec Jornalista Omair Fagundes de Oliveira 1970/01/01 25/11/2022 25/12/2024
136.00000013/2023-66 Município de Capivari/EM Augusto Castanho 1970/01/01 25/11/2022 25/05/2024
136.00000184/2023-95 Município de São João da Boa Vista/EMEB JOSÉ PERES CASTELHANO - UNIDADE II 1970/01/01 25/11/2022 25/05/2024
136.00000045/2023-61 Município de Maracai/EM Profª Maria Helena da Silva Silvério 1970/01/01 25/11/2022 25/05/2024
136.00000349/2023-29 Municio de Vinhedo/EM Prof º André Franco Montoro 1970/01/01 25/11/2022 25/05/2024
136.00017003/2023-60 Município de Teodoro Sampaio/SP-Distrito Planalto do Sul/ 1970/01/01 25/11/2022 25/05/2024
136.00000924/2023-93 Municipio de Assis/Fundação Profº Dr. Manoel Pedro Pimentel - Penitenciária de Assis 1970/01/01 25/10/2022 25/10/2027
CEETEPS-PRC – 2022/21824 Irmandade da Santa Casa de Misericórdia de Piracicaba 2022/08/12 12/08/2022 12/08/2024
136.00000123/2023-28 Município de Itapolis / CEC Fundecitrus - EJA Guilhermina Mallet Cyryno 1970/01/01 30/06/2022 31/12/2023
136.00000802/2023-05 Município de Alambari - EMEIF Luciano José Ramos 1970/01/01 30/06/2022 30/12/2024
136.00000646/2023-74 Município de Santa Maria da Serra / EMEB Dona Zina Saviolo Cury 1970/01/01 30/06/2022 31/12/2023
CEETEPS-PRC-2022/17410 Município de Valparaíso / EMEF Djanira dos Santos Benetti 1970/01/01 30/06/2022 31/12/2023
136.00000092/2023-13 Município de Caconde / EMEB Dr. Cândido Lobo 1970/01/01 30/06/2022 31/12/2023
CEETEPS-PRC-2022/28648 Município de Panorama/EM Profª Ophélia Schipa de Oliveira 1970/01/01 18/01/2023 18/07/2024
136.00003997/2023-37 Município de PARIQUERA-AÇU/EMEF Presidente Vargas 1970/01/01 18/01/2023 18/07/2024
CEETEPS-PRC-2022/28668 Município de Sandovalina/EMEF: MONTEIRO LOBATO 1970/01/01 18/01/2023 18/07/2024
136.00000767/2023-16 Município de Tambaú/EMEF Dr Alfredo Guedes 1970/01/01 18/01/2023 18/07/2024
136.00014471/2023-82 Município de CANITAR/EMEF LUIZ GIMENEZ 1970/01/01 13/01/2023 13/07/2024
CEETEPS-PRC-2022/28639 Município de JAMBEIRO/EMEF PROFESSORA MARIA OLIMPIA 2023/01/12 12/01/2023 12/07/2024
CEETEPS-PRC-2022/28641 Município de JARINU/Centro de Formação Profissionalizante Prefeito Júlio Zanoni 2023/01/12 12/01/2023 12/07/2024
136.00007809/2023-40 Município de SANTA GERTRUDES/EMEF João Rufino 2023/01/12 12/01/2023 12/07/2024
CEETEPS-PRC-2022/29175 Município de TANABI/EM Ganot Chateaubriand 2023/01/12 12/01/2023 12/07/2024
136.00028521/2023-17 Município de ESPIRITO SANTO DO TURVO/EMEF Antônio Gonçalves das Neves 2023/01/12 12/01/2023 12/07/2024
CEETEPS-PRC-2022/16414 Município de ROSEIRA/EMEIEF Prof. Padre Geraldo de Almeida Sampaio 2023/01/11 11/01/2023 11/07/2024
CEETEPS-PRC-2022/29726 Município de PALMARES PAULISTA/EMEF: VEREADOR RAUL DE CARVALHO 2023/01/10 10/01/2023 10/07/2024
136.00028356/2023-95 Município de CUNHA/EMEF PROFESSOR BENEDITO AGUIAR SANTANA 2023/01/06 06/01/2023 06/07/2024
136.00000247/2023-11 Município de SILVEIRAS/EMEIEF Dom Edmund Benedict Nugent 2023/01/06 06/01/2023 06/07/2024
136.00028474/2023-01 Município de Dumont/EMEF Profº Altino Jacintho Tovo 2023/01/03 03/01/2023 03/06/2024
CEETEPS-PRC-2022/28661 Município de Pontal/EMEF Profa. Josepha Castro 2023/01/03 03/01/2023 03/06/2024
136.00000081/2023-25 Município de Boituva/EMEF Profa. Esmeralda Bertolli Labronici 1970/01/01 18/04/2024 18/04/2024
136.00002792/2023-34 Fundação Prof. Dr. Manoel Pedro Pimentel - Penitenciária de PARAGUAÇU PAULISTA. 1970/01/01 28/12/2022 28/12/2027
136.00004409/2023-82 Fundação Prof. Dr. Manoel Pedro Pimentel - Penitenciária de TUPI PAULISTA. 1970/01/01 28/12/2022 28/12/2027
136.00007269/2023-02 Município de Pereiras/EMEF PROF.ROZENDO DUARTE LOBO 1970/01/01 27/12/2022 27/12/2024
136.00002329/2023-92 Munícipio de São Sebastiao/INSTITUTO VERDESCOLA 1970/01/01 20/03/2023 20/03/2028
136.00012227/2023-85 Município de ALUMINIO/Prédio da Polo Univespo 2023/03/10 10/03/2023 10/03/2025
136.00021038/2023-01 Município de SÃO JOSÉ DO RIO PRETO/Escola Municipal Professor Francisco Felipe Caputo 1970/01/01 22/02/2023 22/08/2024
CEETEPS-PRC-2022/29208 Município de VARGEM GRANDE PAULISTA/Pólo UNIVESP 1970/01/01 22/02/2023 22/08/2024
CEETEPS-PRC-2022/28665 Município de RIBEIRÃO DO SUL/EMEF: PROFESSOR SAMUEL PEREIRA DE LIMA 2023/02/09 09/02/2023 09/08/2024
136.00028403/2023-09 Associação Comunitária Despertar/Prédio da Extensão Associação Despertar 2023/02/07 07/02/2023 07/08/2024
136.00000740/2023-23 Município de SÃO SEBASTIÃO/CIP – Centro Integrado Profissionalizante - PMSS 2023/02/06 06/02/2023 06/08/2024
136.00014330/2023-60 Universidade de São Paulo (USP) no Interesse da Faculdade de Odontologia de Bauru da Universidade de São Paulo – FOB-USP/Escola Técnica Estadual Rodrigues de Abreu, no município de Bauru 2023/02/03 03/02/2023 03/08/2024
136.00003391/2023-00 Município de ITARIRI/EMEF PADRE LEONARDO NUNES 2023/03/02 02/03/2023 01/03/2025
136.00021045/2023-03 Município de NOVO HORIZONTE/EMEFA Manoel Roque 2023/02/03 03/02/2023 03/02/2026
136.00007830/2023-45 Município de Potirendaba/Município de Potirendaba/SP. 2023/02/03 03/02/2023 03/08/2024
CEETEPS-PRC-2022/28660 Município de PIRAPOZINHO/EMEF: PROFESSOR CELESTINO MARTINS PADOVAN 1970/01/01 30/01/2023 30/01/2024
136.00032108/2023-49 Município de GAVIÃO PEIXOTOEMEF MARTHA FERREIRA DA CRUZ 1970/01/01 26/01/2023 26/07/2024
136.00032166/2023-72 Município de ITAPECERICA DA SERRA/M Padre Belchior de Pontes 1970/01/01 26/01/2023 26/07/2024
136.00011333/2023-41 Município de ITAPUÍ/EMEF MANOEL RODRIGUES FERREIRA 1970/01/01 26/01/2023 26/07/2024
136.00032182/2023-65 Município de ITAPURA/EXTENSÃO PRÉDIO da PREFEITURA MUNICIPAL 1970/01/01 26/01/2023 26/07/2024
136.00004404/2023-50 Município de Bertioga/EM José de Oliveira Santos 1970/01/01 18/04/2024 18/04/2024
136.00029245/2023-04 Município de Euclides da Cunha Paulista /EMEF Dr. Lúcio Monteiro 1970/01/01 18/01/2023 18/07/2024
CEETEPS-PRC-2022/16851 Município de JACI/EM DININA SILVEIRA AZEVEDO MILANI 1970/01/01 18/01/2023 18/07/2024
CEETEPS-PRC-2022/31934 Município de Mirante do Paranapanema/EM Profa. Zenóbia Gregório Campelo Cabral 1970/01/01 18/01/2023 18/07/2024
136.00005315/2023-21 Município de TARABAI/EMEF Profa Jorgina de Alencar Lima 1970/01/01 29/03/2023 29/09/2024
Unidade Processo Instituição/Empresa Objeto Início Término Link
CEETEPS-PRC-2022/33321 Bekaertdeslee Brazil Indústria e Comércio de Artigos Têxteis Ltda Doação dos seguintes bens móveis: 1 (um) Tear d... 1970/01/01 27/12/2022 A partir da data de sua assinatura.
CEETEPS 136.00013814/2023-91 SAS Institute Brasil Ltda Doação de 100 (cem) vouchers por ano de exames d... 2023/05/05 05/05/2023 05/05/2024
CEETEPS 136.00013795/2023-01 Lingopass Cursos On Line Ltda Doação de direitos de uso para acesso a platafor... 1970/01/01 17/05/2023 17/05/2024
CEETEPS 136.00013864/2023-79 Fundação Armando Álvares Penteado – FAAP Doação de serviços de capacitação para docent... 1970/01/01 24/04/2023 24/04/2025
CEETEPS 136.00000067/2023-21 Baitz Solutions Ltda Doação de equipamentos de laboratório bem como ... 2023/06/07 07/06/2023 07/06/2024
CEETEPS 136.00000086/2023-58 Associação Worldfund Brasil Doação de serviço para executar o programa de f... 1970/01/01 29/06/2023 29/06/2024
CEETEPS 136.00002914/2023-92 Intelligenza Soluções em Informática Ltda Doação de serviço para a capacitação de aluno... 1970/01/01 16/08/2023 16/08/2025
CEETEPS 136.00005793/2023-31 Altissia Prestação de Serviços Educacionais Ltda Doação dos diretos de uso de 4.000 licenças par... 1970/01/01 16/08/2023 16/08/2024
CEETEPS 136.00002914/2023-92 Intelligenza Soluções em Informática Ltda Doação de serviços de capacitação de alunos c... 1970/01/01 16/08/2023 16/08/2025
CEETEPS 136.00009412/2023-92 Associação dos Profissionais de Propaganda - APP Brasil Doação de serviços para realizar o Projeto APPT... 2023/09/06 06/09/2023 06/09/2024
CEETEPS 136.00015250/2023-21 Casio Brasil Comercio de Produtos Eletrônicos Ltda Doação de serviços de capacitação de professo... 2023/09/06 06/09/2023 06/09/2024
CEETEPS 136.00024672/2023-98 Bepro Institute Ltda Doação de serviço de capacitação para formar ... 1970/01/01 18/09/2023 18/09/2025
CEETEPS 136.00004793/2023-13 Visual Systems Informática Ltda. Doação dos seguintes bens móveis e serviços: ... 1970/01/01 14/09/2023 após cumprimento
CEETEPS 136.00013847/2023-31 Sergio Luis Sapia Fotografias Doação de serviços a ser celebrado entre o Cent... 2023/05/05 05/05/2023 05/05/2024
CEETEPS 136.00013830/2023-84 Mamute Eletrônica Ltda Doação de equipamentos para premiação dos alun... 2023/05/05 05/05/2023 05/05/2024
CEETEPS 136.00013780/2023-35 Associação Nacional para Difusão de Adubos - ANDA Doação de serviços de capacitação de docentes... 1970/01/01 17/05/2023 17/05/2024
CEETEPS 136.00015314/2023-94 Didatech Comercio e Automação de Sistemas Educacionais Ltda Doação de serviços para capacitação de 40 pro... 1970/01/01 22/12/2022 22/12/2024
CPS CEETEPS-PRC-2022/13080 Intel Semicondutores do Brasil Ltda Doação de serviços de treinamento de docentes d... 2022/06/07 07/06/2022 07/06/2024
CPS CEETEPS-PRC-2022/23378 Mamuth Eletronica Ltda Doação de bens móveis destinados à premiação... 2022/08/02 02/08/2022 31/12/2022
CPS 136.00015325/2023-74 E do Brasil Tecnologia Ltda - Embarcadero Doação dos direitos de uso de 500 licenças conc... 1970/01/01 24/10/2022 24/10/2024
CPS 136.00015322/2023-31 Universia Brasil S.A. Doação dos direitos de acesso a 34 portais de em... 1970/01/01 27/10/2022 27/10/2024
CPS 136.00015321/2023-96 Instituto para o Desenvolvimento do Jornalismo - PROJOR Doação de serviços de capacitação de docentes... 2022/11/01 01/11/2022 01/11/2024
CPS 136.00013744/2023-71 Mastertest Global Ltda Doação dos direitos a 330 (trezentos e trinta) C... 2022/11/10 10/11/2022 10/11/2023
CPS 136.00005863/2023-51 Centro de Ensino Superior Strong Doação dos direitos de acesso à plataforma de g... 1970/01/01 15/03/2023 15/03/2025
CPS 136.00005974/2023-67 Humanizadas Desenvolvimento de Software Ltda Doação de serviços para realização de uma pes... 1970/01/01 27/03/2023 27/03/2024
CPS 136.00013875/2023-59 Associação Worldfund Brasil Doação de serviços de capacitação para docent... 1970/01/01 29/03/2023 29/03/2024
CPS 136.00013882/2023-51 Mapdata-Tecnologia, Informática e Comércio Ltda Doação de serviços de capacitação para docent... 1970/01/01 29/03/2023 29/03/2024
CPS 136.00006002/2023-90 Festo Brasil Ltda Doação de serviços de capacitação de docentes... 1970/01/01 29/03/2023 29/03/2025
Unidade Processo Instituição/Empresa Objeto Início Término Link
CEETEPS 136.00000471/2023-03 Banco Santander (Brasil) S.A. Programa de Bolsas Santander Graduação e Program... 2023/02/08 08/02/2023 31/12/2023
CEETEPS 136.00000810/2023-43 Programmer’s Informática LTDA Realização de atividades pedagógicas, possibili... 1970/01/01 29/05/2023 29/05/2025
CEETEPS 136.00000774/2023-18 Municipío de Jundiaí Participação da Fatec Jundiaí no Ecossistema d... 1970/01/01 29/05/2023 29/05/2028
CEETEPS 136.00000743/2023-67 Instituto Maria Claro Desenvolvimento de dispositivo auxiliar “Headpod... 1970/01/01 29/05/2023 29/05/2024
CEETEPS SPDoc 2441695/2019 Fundo Nacional de Desenvolvimento da Educação - FNDE Ampliação, Construção e Reforma de escola(s), ... 1970/01/01 31/12/2009 20/10/2023
Etec Rubens de Faria e Souza 136.00022154/2023-30 Ministério da Ciência, Tecnologia e Inovações Aquisição de Torno Horizontal CNC - (REPASSE - R... 1970/01/01 30/12/2020 29/12/2023
CEETEPS 136.00000017/2023-44 Universidade de São Paulo Utilização do Laboratório Sistemas Integráveis... 1970/01/01 28/08/2023 27/08/2025
CEETEPS 136.00022147/2023-38 Ministério da Mulher, Família e Direitos Humanos Realização de cursos de qualificação para mulh... 1970/01/01 27/12/2021 26/12/2023
CEETEPS 136.00015329/2023-52 Tranter Indústria e Comércio de Equipamentos Ltda Realização de um programa de complementação te... 1970/01/01 24/10/2022 24/10/2023
CEETEPS 136.00015777/2023-56 Prefeitura Municipal de Itapetininga Implantação do Programa Farmácia Viva, visando ... 1970/01/01 29/12/2022 29/12/2024
CEETEPS 136.00015784/2023-58 Nova Aqua Atividades de Apoio à Aquicultura Ltda - EPP Reforma e a reativação dos tanques e estrutura d... 2023/01/12 12/01/2023 12/01/2026
Unidade Processo Instituição/Empresa Objeto Início Término Link
CEETEPS 136.00003538/2023-53 BRP BRASIL MOTORSPORTS LTDA O objeto deste instrumento consiste no comodato do... 1970/01/01
CEETEPS 136.00000518/2023-21 Equipo Inox do Brasil Comércio e Serviços Ltda Comodato do bem móvel Reator de Manipulação de ... 1970/01/01
Etec Jorge Street (011) 136.00062039/2023-06 Volkswagen doBrasil Termo de Comodato de veículos para uso estático,... 2021/11/04 04/11/2021 03/11/2023
CEETEPS CEETEPS-PRC-2022/17551 Serviço de Apoio às Micro e Pequenas empresas do Estado de São Paulo - SEBRAE Comodato dos bens móveis instalados na cozinha da... 1970/01/01 21/06/2022 20/05/2024
Unidade Processo Instituição/Empresa Objeto Início Término Link
CEETEPS 136.00000250/2023-27 G7 - Instituto Educacional, Assistencial e Gestão de Negócios Credenciamento da G7 - Instituto Educacional, Assi... 1970/01/01 25/05/2023 25/05/2028
CEETEPS 136.00025531/2023-92 Editora Atheneu Ltda Credenciamento da Editora Atheneu Ltda para conces... 1970/01/01 29/03/2023 28/03/2028
CEETEPS CEETEPS-PRC-2023/06694 Associação Paulista de Medicina - APM Credenciamento da Associação Paulista de Medicin... 1970/01/01 28/04/2023 28/04/2028
CEETEPS CEETEPS-PRC-2023/04835 Instituto Phorte de Educação Ltda Credenciamento do Instituto Phorte de Educação L... 1970/01/01 20/03/2023 20/03/2028
CEETEPS CEETEPS-PRC-2023/01856 Fundação Escola de Sociologia e Política de São Paulo - FESPSP Credenciamento da Fundação Escola de Sociologia ... 2023/02/09 09/02/2023 09/02/2028
CEETEPS CEETEPS-PRC-2023/01564 Editora Biruta Ltda Credenciamento da Editora Biruta Ltda na concessã... 2023/02/09 09/02/2023 09/02/2028
CEETEPS CEETEPS-PRC-2023/06210 Lingopass Cursos On Line Ltda Credenciamento da Lingopass Cursos On Line Ltda na... 2023/04/05 05/04/2023 05/04/2028